GFSSW_850_dewp_069.txt.gz
Dewpoint
8 8 8 8 9 8 7 5 4 1 -3 -7 -9 -9 -10 -11 -12 -6 -1 -2 -7 -9 -6 -3 -5 -4 -6 -9 -11 -10 -8 -8 -7 -9 -5 -5 -3 3 6 5 7 8 9 12 13
2 5 7 8 7 8 8 7 6 5 3 -1 -6 -9 -10 -10 -11 -2 -3 -5 -8 -14 -5 -5 -5 -5 -6 -7 -9 -9 -7 -7 -10 -10 -9 -8 -3 0 3 3 3 8 11 13 13
-14 -5 3 6 5 2 8 8 8 6 5 4 -1 -7 -9 -10 -0 -4 -4 -5 -6 -11 -4 -5 -6 -7 -7 -7 -7 -8 -8 -10 -9 -8 -7 -8 -4 2 1 1 5 6 11 12 13
-25 -22 -10 -3 1 2 4 5 7 7 7 6 3 -2 -9 -8 -4 -1 -4 -4 -5 -6 -2 -6 -7 -8 -7 -6 -7 -7 -8 -7 -7 -6 -2 -4 2 1 1 4 6 9 11 11 12
-26 -26 -20 -11 -9 -4 -1 -0 0 3 6 6 5 2 -5 -2 -4 -5 -5 -5 -4 -5 -2 -6 -7 -9 -6 -7 -7 -6 -4 -3 -3 -1 -1 -0 0 2 1 6 8 9 10 11 12
-25 -26 -27 -25 -19 -12 -6 -1 -0 -1 3 6 5 4 1 -1 -6 -8 -10 -5 -1 -2 -4 -7 -6 -5 -5 -6 -6 -2 -2 -2 -2 -2 -1 0 -1 1 6 6 8 8 10 10 11
-11 -19 -25 -28 -28 -24 -14 -7 -2 -7 -1 4 5 5 3 -1 -5 -5 -13 -1 -2 -4 -6 -5 -4 -4 -4 -5 -5 -3 -2 1 3 -2 -2 -2 0 1 5 6 8 8 9 9 10
-1 -6 -18 -25 -29 -29 -24 -17 -12 -7 -1 -0 3 4 3 -4 -4 -5 -5 -0 -1 -3 -4 -4 -3 -3 -4 -4 -5 -4 -4 -3 4 1 -2 -2 7 7 5 7 7 8 8 7 7
2 0 -4 -18 -23 -30 -28 -17 -10 -2 -1 -2 1 5 -1 -4 -5 -7 -7 -3 -1 -2 -1 -2 -2 -3 -4 -4 -4 -5 -4 -1 -1 -3 -3 -2 1 2 3 5 6 7 7 6 7
2 2 1 -2 -15 -27 -28 -19 -8 -8 0 2 4 3 -1 -5 -5 -6 -8 -5 -3 -2 -1 -2 -3 -2 -3 -3 -1 -4 -4 -5 -4 -2 -3 -2 -1 -1 1 4 5 5 6 6 7
2 2 2 2 -6 -19 -24 1 4 6 5 -2 -2 -5 -5 -6 -2 -4 -7 -6 -3 -2 -1 -3 -2 -1 -3 -4 -5 -5 -5 -3 -4 -4 -3 -2 -1 -3 1 4 5 7 6 7 7
1 2 2 3 -1 -10 -3 2 2 5 1 -2 -1 -2 -1 -1 -2 -5 -4 -4 -4 -1 -3 -2 -0 -3 -4 -7 -6 -5 -3 -2 -3 -5 -3 -3 -4 -6 0 4 4 5 7 6 7
-1 1 1 2 1 -8 4 3 4 5 3 -4 -6 -4 -5 -3 -2 -4 -4 -5 -4 -2 -3 -2 -2 -4 -3 -3 -2 -2 -1 -1 -2 -3 -4 -4 -4 -4 -2 2 2 3 4 5 7
-6 -0 1 2 -3 2 3 4 5 6 3 -8 -1 -2 -5 -5 -4 -5 -5 -6 -5 -3 -4 -4 -5 -3 -2 -2 -2 -1 -3 -3 -2 -1 4 -2 1 -2 -5 -1 2 2 3 4 6
-4 -2 1 1 4 5 4 6 7 6 -7 -9 -4 -2 -5 -4 -13 -7 -5 -7 -5 -5 -5 -4 -4 -2 -2 -2 -4 -2 -2 -2 -1 -0 -1 -3 -4 -3 -7 -6 -3 1 2 3 4
-3 -5 0 1 2 4 6 7 7 3 -3 -7 -2 -2 -1 -4 -9 -9 -6 -6 -7 -6 -6 -5 -6 -5 -4 -4 -3 -3 -2 -1 -0 0 3 -1 -2 -1 -3 -7 -6 -5 -1 2 3
-1 -6 -1 2 2 1 5 6 3 -2 -11 -10 -1 -1 -0 -2 -4 -7 -6 -4 -4 -2 -2 -4 -3 -5 -4 -2 -2 -1 1 4 4 4 3 -2 -2 -4 -6 -6 -6 -5 -3 -2 1
-0 -4 -4 1 1 4 5 6 -0 -7 -7 -4 -3 0 1 -4 -5 -5 -5 -3 -5 -5 -3 -2 -1 -4 -4 -2 -1 -1 -0 4 5 5 2 -3 -4 -5 -7 -8 -7 -5 -3 -0 0
1 -0 -0 2 0 2 3 5 -3 -8 -10 -10 -3 2 1 -3 -5 -5 -4 -4 -5 -5 -3 -3 -3 -6 -5 -4 -3 -1 1 -2 2 1 3 -1 -4 -6 -8 -8 -6 -7 -6 -2 0
1 1 -1 2 1 3 3 4 -2 -10 -13 -6 -6 -1 1 -1 -3 -4 -4 -7 -6 -7 -7 -5 -2 -6 -5 -4 -4 -1 -1 2 1 4 5 -1 -3 -4 -6 -5 -7 -7 -7 -3 2
1 1 -1 2 1 3 3 2 -0 -8 -9 -5 -3 -5 -1 0 -3 -2 -4 -7 -8 -6 -6 -5 -3 -3 -2 -1 -2 -1 1 -0 -1 1 4 3 -2 -5 -6 -7 -7 -6 -6 -6 -3
1 2 -0 1 2 2 3 -0 -2 -4 -7 -5 -0 -1 -3 -1 -1 -2 -0 -5 -7 -7 -4 -4 -3 -1 -1 -4 -6 -3 -1 -1 3 1 1 2 1 -6 -6 -7 -5 -6 -5 -5 -3
1 1 0 1 2 3 -1 -1 -3 -3 -5 -3 -1 -1 -0 3 1 -2 -2 -5 -6 -6 -3 -4 -2 1 -1 -2 -2 -1 -1 -1 -1 -0 2 8 2 -6 -6 -5 -6 -6 -6 -5 -3
0 2 2 2 -2 -1 -1 -2 -2 -4 -3 -6 -2 -3 -0 2 2 0 -1 -3 -3 -5 -6 -2 -3 -1 1 -1 -2 -1 -3 -3 -1 5 2 1 -2 -6 -6 -5 -6 -5 -5 -6 -4
0 0 0 2 2 -1 -3 -5 -4 -4 -4 -3 -2 -1 -0 1 1 3 -0 -1 -0 -3 -2 -2 -1 -3 -4 -5 -6 -5 -4 -4 -2 -2 1 -1 -3 -7 -7 -7 -6 -4 -4 -3 -4
-0 -2 -3 -3 0 -0 -2 -3 -5 -6 -6 -4 -1 -3 -2 -1 1 2 2 -0 -2 -2 -1 -2 1 -1 -2 -4 -5 -5 -7 -6 -6 -7 -6 -6 -5 -7 -7 -7 -7 -5 -3 -3 -0
-0 -3 -3 -1 -0 0 0 -2 -5 -7 -7 -7 -6 -3 -1 -2 1 1 0 -0 -0 2 1 -0 2 0 2 -3 -3 2 -3 -5 -5 -6 -5 -2 -4 -6 -6 -6 -6 -6 -3 -1 3

GFSSW_850_dewp_072.txt.gz
Dewpoint
-1 4 5 5 5 6 7 7 7 6 5 5 3 -0 -5 -9 -9 -10 -1 -1 0 -8 -7 -2 -4 -4 -6 -6 -8 -12 -9 -7 -4 -5 -6 -7 -6 0 -1 1 3 6 11 13 13
-17 -16 -11 -6 -2 -3 -1 -3 1 6 6 5 4 3 -0 -6 -8 -8 -3 -4 -4 -11 -9 -3 -5 -6 -5 -7 -9 -10 -8 -6 -6 -10 -10 -9 -9 3 4 6 7 6 12 13 13
-27 -27 -24 -17 -12 -10 -11 -7 -4 -2 4 4 4 4 2 -4 -4 -1 -4 -5 -7 -11 -6 -4 -6 -7 -8 -7 -8 -8 -7 -9 -10 -9 -9 -7 -7 0 2 6 6 7 11 13 12
-26 -28 -28 -27 -25 -19 -14 -14 -8 -5 -4 -3 3 3 1 -1 -1 -2 -7 -6 -6 -7 -9 -3 -6 -7 -8 -7 -8 -7 -10 -9 -7 -7 -7 -7 -5 -1 -2 6 8 9 11 12 12
-14 -24 -27 -29 -29 -28 -24 -18 -13 -9 -6 -5 -4 4 1 2 -1 -2 -4 -7 -5 -5 -5 -3 -7 -8 -8 -8 -8 -7 -8 -6 -7 -6 -5 -7 -4 -4 -2 5 8 9 9 11 12
-6 -12 -23 -27 -30 -30 -30 -29 -24 -14 -11 -10 -3 2 5 4 -4 -6 -5 -6 -4 -4 -2 -4 -7 -8 -6 -6 -6 -7 -3 -4 -1 0 -1 -2 -4 1 4 5 7 8 9 11 11
0 -6 -12 -15 -26 -29 -32 -32 -31 -24 -18 -14 -3 3 6 1 -8 -5 -4 -2 -1 -1 -3 -6 -8 -5 -5 -4 -5 -6 -5 -3 3 -0 -1 0 -2 6 5 7 7 8 9 10 10
2 1 -2 -10 -18 -26 -31 -33 -32 -22 -15 -7 -2 2 2 -11 -3 -3 -3 -4 -2 -3 -5 -5 -5 -4 -4 -4 -5 -4 -5 -2 1 2 1 1 2 7 5 4 8 7 8 8 9
3 2 2 -2 -6 -19 -29 -32 -33 -21 -15 -8 -4 3 1 -5 -4 -4 -6 -6 -2 -2 -4 -4 -3 -3 -4 -3 -2 -5 -3 -3 0 1 -0 -2 -1 5 6 6 6 7 8 6 9
2 2 2 2 1 -8 -24 -31 -29 -2 4 2 4 1 -1 -7 -6 -4 -6 -8 -3 -2 -3 -3 -3 -3 -3 -2 1 -1 -2 -2 -3 -2 -2 -2 -3 1 5 8 4 7 7 7 7
-0 1 2 2 2 -1 -17 -25 1 7 7 3 -0 -2 -7 -4 -6 -5 -7 -8 -5 -3 -1 -3 -1 -1 -2 -2 -3 -4 -4 -5 -1 -3 -3 -4 -2 -0 -1 0 3 5 4 5 6
-6 -0 0 1 1 1 -8 4 -1 4 2 -2 -0 0 -2 -2 -1 -4 -6 -8 -6 -3 -3 -2 -0 -4 -4 -4 -6 -6 -4 -4 -4 -4 -4 -4 -1 -4 -2 1 3 5 4 5 6
-8 -6 -2 0 1 -3 -5 -2 3 4 3 -4 -6 -7 -7 -5 -2 -3 -6 -9 -6 -3 -3 -0 -2 -3 -3 -3 -3 -4 -2 -2 -1 -3 -3 -1 -1 -4 -3 -0 1 4 5 7 6
-7 -6 -5 0 -1 3 1 2 3 5 4 -9 -9 -6 -8 -7 -6 -4 -4 -6 -6 -5 -4 -3 -4 -3 -3 -2 -3 -1 -4 -3 -3 -2 1 1 4 -1 -4 -2 1 3 6 4 5
-3 -9 -5 -0 1 3 5 5 5 6 -2 -15 -11 -4 -6 -7 -9 -8 -4 -5 -4 -5 -5 -3 -4 -4 -1 -3 -4 -2 -4 -1 -2 -1 -0 2 3 -2 -4 -2 -0 1 4 5 6
-1 -4 -4 -2 1 -3 5 5 6 5 -3 -10 -4 -3 -4 -6 -8 -10 -7 -5 -6 -6 -5 -5 -7 -6 -5 -4 -4 -5 -3 -2 -1 0 4 0 -0 0 0 -4 -4 -1 1 3 6
-0 -1 -3 -0 1 1 2 3 5 2 -11 -12 -4 -3 -3 -3 -5 -6 -7 -3 -2 -2 -1 -4 -5 -7 -6 -4 -4 -3 -0 4 7 6 6 2 1 -2 1 -3 -6 -5 -1 1 3
0 -0 -1 -1 1 2 3 5 5 -6 -5 -9 -10 -2 -1 -2 -3 -4 -6 -5 -3 -5 -3 -2 -1 -5 -5 -3 -2 -1 0 6 11 9 5 2 -0 -8 -6 -7 -7 -6 -5 -2 -0
-0 1 0 1 1 2 3 5 2 -4 -11 -8 -6 -2 1 -2 -3 -2 -3 -4 -4 -5 -2 -1 -2 -7 -5 -5 -4 -0 1 -1 4 5 8 2 -1 -6 -7 -8 -8 -7 -6 -3 -1
0 1 1 0 -1 2 3 2 -1 -3 -7 -8 -7 -4 1 0 -2 -3 -3 -5 -4 -6 -5 -3 0 -5 -6 -5 -5 -3 -3 2 2 7 6 -0 -1 3 -3 -6 -6 -7 -6 -4 -1
1 1 1 0 -0 2 3 1 -1 -5 -3 -5 -8 -6 -8 -2 -1 -3 -4 -3 -5 -4 -5 -4 -1 -2 -5 -4 -3 -2 -1 2 0 1 6 7 3 -1 -3 -7 -5 -6 -6 -6 -2
1 1 1 0 2 2 2 -0 -3 -6 -6 -4 -3 -3 -6 -5 1 -2 -2 -3 -4 -5 -3 -4 -2 1 -3 -5 -5 -4 -1 1 5 3 4 8 5 -4 -3 -5 -6 -6 -6 -5 -5
1 1 1 1 2 1 -0 -1 -3 -4 -6 -5 -3 -3 -3 1 -0 -1 -1 -2 -3 -2 -3 -3 -1 2 0 -3 -2 -2 -3 -2 -0 1 4 8 4 -3 -5 -6 -6 -6 -6 -7 -4
0 1 1 2 -1 -1 0 -1 -1 -4 -5 -6 -3 -4 3 0 1 2 -0 -1 -3 -1 -1 1 -0 0 3 1 -1 -1 -3 -3 0 6 4 3 0 -1 -4 -4 -4 -5 -3 -4 -5
-0 1 1 2 2 -0 -1 -3 -2 -2 -5 -5 -4 -3 -0 5 -1 1 1 -1 -3 -3 -0 2 3 -0 -2 -4 -4 -3 -2 -2 -2 -1 3 3 -1 -3 -5 -6 -5 -6 -3 -2 -0
-0 -0 -2 -2 -1 1 0 -0 -3 -5 -6 -4 -3 -3 -2 5 5 3 -1 1 2 1 1 -1 3 0 1 -3 -3 -3 -3 -3 -4 -4 -4 -3 -3 -6 -8 -9 -6 -7 -7 -4 -3
1 -1 -2 -1 1 1 1 -1 -2 -5 -7 -8 -6 -4 0 3 3 6 3 1 1 2 4 2 2 2 4 -0 -2 1 -2 -4 -5 -5 -5 -2 -4 -6 -5 -6 -6 -6 -6 -5 -1

GFSSW_850_dewp_075.txt.gz
Dewpoint
-25 -21 -18 -13 -8 -6 -10 -11 -8 -7 -6 1 2 1 1 0 -3 -6 -9 -10 -2 -1 -9 -5 -5 -8 -5 -5 -6 -6 -9 -8 -6 -4 -7 -3 -5 0 1 2 6 7 5 8 11
-29 -30 -29 -28 -26 -20 -21 -21 -18 -13 -10 -8 -5 -3 -3 -1 -4 -7 -3 -4 -4 -3 -9 -5 -3 -5 -4 -6 -6 -7 -7 -7 -8 -6 -7 -7 -7 0 4 5 6 5 6 11 13
-24 -26 -29 -30 -31 -30 -29 -25 -22 -20 -16 -11 -10 -10 -11 -5 -6 -1 -5 -6 -5 -7 -12 -3 -3 -5 -6 -7 -7 -7 -6 -8 -9 -7 -6 -7 -7 0 3 6 6 6 9 12 12
-20 -24 -27 -28 -31 -32 -32 -32 -31 -27 -22 -19 -13 -11 -11 -8 -0 -2 -2 -6 -7 -8 -10 -5 -4 -4 -5 -6 -8 -6 -8 -9 -9 -1 -1 -2 -5 -4 9 8 9 9 11 12 12
-5 -10 -21 -25 -27 -31 -32 -33 -33 -33 -30 -23 -17 -13 -8 2 -3 -14 -2 -4 -6 -6 -8 -8 -3 -3 -6 -8 -8 -5 -6 -6 -2 -3 -2 -2 -4 -2 7 6 9 10 11 11 11
-1 -1 -6 -15 -23 -27 -30 -33 -34 -34 -32 -26 -18 -10 -1 6 -16 -3 -2 -6 -6 -5 -6 -7 -3 -4 -7 -5 -4 -6 -6 -5 -2 -2 -2 -1 -0 0 3 6 8 11 10 10 9
1 2 0 -4 -11 -23 -26 -31 -33 -33 -32 -21 -8 1 2 -14 -21 -4 -2 -4 -4 -3 -3 -6 -5 -5 -7 -3 -4 -4 -3 -4 1 -0 -1 -1 1 3 4 4 6 6 11 8 10
-1 0 2 1 -4 -14 -23 -28 -33 -33 -32 -21 -6 2 2 -29 -23 -14 -6 -4 -4 -1 -1 -4 -4 -5 -5 -4 -3 -3 -4 -2 -5 1 -0 1 3 4 6 6 7 10 9 9 9
-7 -2 1 2 0 -9 -18 -27 -32 -32 -29 -5 -3 2 3 -2 -4 -10 -5 -3 -4 -3 -2 -4 -5 -3 -3 -1 -0 -1 -0 -2 -3 0 1 1 3 4 5 5 6 7 9 8 8
-7 -6 1 1 1 -3 -12 -23 -32 -31 -14 5 6 3 -3 -7 -7 -5 -5 -5 -5 -4 -2 -3 -3 -1 -1 -1 2 1 -0 -1 -1 1 2 2 2 5 6 5 8 7 8 7 7
-14 -7 -3 0 -1 -2 -6 -19 -1 4 6 5 2 -8 -11 -7 -3 -6 -4 -6 -7 -7 0 -2 -0 1 -1 -2 -2 -1 -1 -3 -4 -3 -2 -1 -1 2 6 6 8 8 8 9 8
-13 -11 -7 -5 -2 -2 -2 -9 -0 3 4 3 2 4 2 -10 1 -2 -5 -6 -7 -5 -2 0 1 -1 -2 -3 -2 -2 -4 -3 -4 -1 -1 -4 -3 -2 1 7 6 7 7 9 9
-1 -3 -7 -6 -4 -2 -1 -3 -1 1 4 2 -1 -3 -7 -5 0 -3 -3 -5 -6 -5 -3 1 0 -2 -2 -2 -2 -3 -3 -2 -1 -3 -2 -1 -0 -2 -0 2 5 5 6 8 8
-3 -1 -6 -6 -5 2 4 5 3 3 6 0 -4 -5 -5 -9 -4 -8 -4 -4 -7 -5 -4 -2 -2 -1 -1 -1 -2 -1 -2 -2 -0 -1 1 -0 4 1 -1 2 3 5 6 7 8
-13 -1 -2 -6 -4 -1 3 6 5 5 1 -10 -10 -8 -8 -7 -8 -7 -13 -3 -6 -6 -4 -3 -1 -1 -1 -1 -2 -1 -1 -1 -0 1 1 2 5 3 -1 1 2 6 7 6 6
-6 -6 -0 -4 -5 -9 0 4 3 6 6 -6 -4 -3 -4 -7 -7 -8 -7 -5 -4 -5 -5 -4 -6 -4 -3 -3 -3 -3 -2 -1 -0 1 5 2 4 2 -1 -2 0 4 6 7 6
-1 -2 -0 -1 -6 1 3 3 5 6 -10 -13 -3 -2 -2 -4 -6 -6 -5 -4 -1 0 -0 -2 -4 -5 -5 -4 -3 -3 -0 5 7 6 7 3 4 2 0 -1 -2 1 6 5 5
-1 -1 -0 -0 -5 0 2 4 5 -3 -3 -6 -6 -4 -0 -2 -4 -5 -5 -4 -2 -2 -1 -0 0 -4 -5 -4 -1 -1 1 7 9 9 8 5 5 -1 -1 -2 -6 -5 4 5 5
-1 1 1 0 -1 -0 2 4 2 -1 -5 -6 -7 -7 -1 -2 -1 -3 -3 -3 -4 -3 -1 -1 -1 -6 -6 -5 -3 1 2 1 7 6 8 6 2 -2 -4 -7 -6 -6 -5 4 6
1 1 0 -0 -1 0 2 1 -1 -3 -6 -5 -2 -3 -3 -1 1 0 -0 -2 -3 -5 -4 -1 1 -4 -5 -4 -3 -2 -1 3 3 8 9 5 3 3 -1 -2 -5 -7 -3 -3 -1
1 1 1 -1 0 1 2 0 -1 -3 -5 -4 -4 -3 -1 1 1 2 -1 -2 -4 -5 -4 -4 -1 -0 -3 -2 -1 -1 -1 -0 3 5 6 5 4 0 -0 -2 -6 -5 -4 -5 -3
1 1 1 -1 2 1 -0 -2 -3 -2 -4 -4 -4 -4 -0 -0 -0 2 3 -1 -5 -3 -3 -3 1 2 -0 -3 -4 -3 -1 1 7 5 5 5 4 -3 -4 -5 -5 -6 -6 -3 -1
0 1 1 0 2 1 -1 -1 -2 -1 -2 -3 -3 -5 -4 -2 2 5 4 1 -3 -2 -1 -0 2 5 2 -1 -3 -2 -2 -1 1 3 5 7 6 -1 -2 -5 -5 -5 -5 -5 -4
-0 1 1 2 1 0 1 -0 0 -2 -2 -3 -3 -4 -3 -1 1 6 6 4 -1 -1 -2 -0 3 4 4 2 -0 -0 -1 -2 0 4 4 4 3 1 -0 -2 -5 -6 -5 -4 -3
-0 0 1 2 2 1 -1 -1 -0 0 -3 -3 -2 -2 -2 -1 3 4 5 6 3 -1 1 1 3 2 1 -2 -1 -0 -0 -1 -1 0 5 3 2 1 -2 -4 -4 -5 -4 -4 -4
-0 1 0 -1 -0 2 1 2 -0 -1 -3 -2 -1 -3 -3 -2 2 3 4 7 6 1 0 0 2 1 3 1 -2 -1 -1 -2 -2 -1 -2 -1 2 -1 -4 -6 -6 -5 -3 -2 -3
1 -0 -0 -0 1 1 1 -0 0 -1 -3 -4 -4 -3 -3 -3 1 3 5 6 6 5 3 1 3 3 4 2 1 2 -0 -2 -2 -2 -2 -1 -2 -5 -5 -5 -6 -5 -5 -2 -1

GFSSW_850_dewp_081.txt.gz
Dewpoint
-13 -20 -25 -29 -30 -30 -31 -32 -32 -33 -33 -33 -33 -32 -31 -29 -24 -21 -17 -4 -7 -8 -3 -10 -8 -11 -12 -8 -5 -6 -4 -3 -4 -6 -8 -8 -4 2 3 6 7 8 6 6 12
-2 -7 -15 -23 -27 -29 -29 -31 -32 -33 -33 -33 -34 -34 -33 -32 -28 -22 -10 -6 -7 -2 -2 -4 -6 -3 -3 -4 -5 -6 -4 -4 -7 -9 -7 -7 -6 2 5 7 7 5 5 9 10
-2 -2 -3 -10 -20 -24 -27 -27 -31 -32 -33 -33 -34 -34 -33 -32 -27 -15 -4 -5 -4 -5 -5 -6 -9 -3 -3 -4 -5 -6 -4 -6 -7 -8 -7 -6 -2 3 5 6 6 6 5 11 11
-0 -3 -3 -7 -12 -20 -23 -26 -27 -30 -32 -33 -33 -33 -33 -26 -20 -2 -3 -3 -4 -6 -5 -8 -10 -4 -4 -5 -6 -6 -7 -7 -7 -5 -4 -2 0 8 6 7 6 6 8 12 12
-5 -5 -6 -4 -10 -18 -25 -23 -23 -26 -29 -31 -32 -32 -29 -8 -24 -28 -7 -6 -4 -4 -5 -8 -10 -4 -3 -4 -6 -7 -7 -5 -4 -4 -3 -2 1 7 8 8 8 9 11 12 11
-7 -7 -9 -6 -9 -14 -20 -24 -25 -23 -25 -28 -30 -30 -11 2 -21 -20 -15 -19 -16 -4 -5 -6 -8 -8 -4 -3 -5 -5 -4 -4 -4 -4 -3 3 6 5 5 10 8 6 8 10 11
-12 -12 -8 -11 -9 -12 -16 -18 -22 -25 -22 -24 -28 -24 -6 -25 -27 -27 -21 -2 -5 -3 -4 -4 -5 -6 -3 -2 -3 -3 -3 -4 -5 -4 -2 -2 2 4 2 10 10 7 7 10 9
-12 -17 -16 -13 -13 -12 -15 -17 -19 -23 -25 -23 -26 -17 -7 -28 -26 -28 -27 -22 -2 -2 -3 -2 -1 -3 -2 -3 -3 -2 -2 -2 -5 -4 -3 -2 -1 0 6 8 7 8 11 10 7
-15 -17 -19 -18 -16 -15 -16 -19 -21 -23 -27 -23 -21 -10 -6 -16 -14 -7 -4 -7 -8 -2 -4 -3 0 -0 -1 -1 -1 -1 -0 -1 -1 -4 -3 -0 -1 -0 6 7 8 8 10 8 5
-19 -18 -19 -20 -19 -18 -18 -16 -8 -7 -18 -19 2 0 -18 -18 -5 -2 -2 -3 -10 -6 -3 -3 -2 -1 -1 -0 2 0 1 -0 -0 -2 -0 1 2 5 7 8 9 10 9 6 2
-18 -19 -20 -20 -20 -21 -17 -16 -3 0 2 2 3 -1 -7 -3 -6 -4 -1 -2 -5 -3 -2 -2 -0 1 -0 -1 -2 -1 -0 0 -1 -3 -1 -0 1 1 6 7 8 9 9 5 2
-17 -18 -20 -21 -20 -21 -2 2 2 2 3 1 -2 -1 -1 -1 3 -9 -3 -2 -3 -2 -2 -1 2 -1 -2 -2 -1 -0 0 0 -1 -3 -1 -1 -0 -3 6 6 6 8 9 7 3
-17 -18 -19 -21 -19 -19 -1 3 2 3 4 2 -5 -1 -4 -4 0 -4 -6 -3 -4 -2 -2 -1 -0 -1 -1 -0 0 0 1 1 0 -2 -3 -2 -1 -1 4 6 6 6 8 8 5
-16 -16 -17 -20 -14 -7 2 2 0 4 4 -0 1 -4 -3 -2 2 -7 -4 -4 -4 -3 -4 -3 -4 -1 -0 -0 -0 2 -0 -0 -0 0 2 -1 3 -0 1 6 7 7 7 8 5
-15 -12 -11 -17 -11 -14 -13 -9 1 4 -13 -13 -4 -5 -3 -6 -11 -5 -7 -4 -3 -4 -5 -3 -2 -3 -0 1 -1 1 -1 0 0 1 1 1 3 1 2 5 6 7 7 8 7
-5 -4 -2 -10 -9 -11 -14 -10 3 3 -0 -7 -6 -3 -3 -5 -7 -5 -3 -5 -6 -4 -5 -5 -5 -4 -3 -3 -1 -1 -0 -0 1 1 4 2 2 2 1 1 4 5 7 7 7
-3 -3 -2 -3 -6 -7 -5 -0 4 3 -4 -6 -4 -7 -7 -5 -5 -7 -3 -3 -0 -1 0 -4 -5 -6 -4 -1 -2 -1 -0 4 4 4 4 2 4 2 -0 -1 2 5 6 6 6
-3 -2 -1 -2 -3 -3 -2 2 4 -0 -0 -3 -5 -6 -8 -1 -0 1 -4 -2 -5 -2 -1 0 0 -5 -6 -3 -2 -0 1 5 5 6 5 5 7 4 -1 -2 -2 2 3 6 7
-2 -1 -1 -3 -1 -0 -0 1 -3 -1 -4 -3 -4 -3 -2 -4 -1 1 2 -1 -6 -5 0 1 -1 -4 -6 -5 -4 -1 1 -1 3 6 7 5 4 1 -4 -3 -1 2 5 6 6
-2 -0 -0 -4 -1 1 -0 -4 -3 -4 -4 -4 -2 -3 -2 -4 -2 2 2 1 0 1 -5 -0 1 -2 -4 -5 -4 -3 -1 3 5 7 8 6 5 4 0 -3 -4 1 5 5 6
-0 0 -1 -4 -1 1 -0 -2 -3 -7 -6 -2 -2 -3 -4 -5 -5 1 2 -0 2 3 4 -1 -1 0 -3 -2 -2 -0 1 1 2 5 6 7 4 1 1 -2 -4 -3 4 4 5
-0 0 -1 -2 1 -0 -1 -3 -5 -5 -4 -4 -3 -3 -2 -2 -3 -2 0 -1 1 3 4 4 1 1 -1 -3 -4 -4 -2 2 4 5 5 5 3 -2 -1 -1 -2 -5 -2 2 1
-0 0 -0 -1 -0 0 -1 -2 -4 -5 -4 -3 -1 -3 -4 -3 -1 -2 -2 0 2 4 5 5 5 3 1 -1 -3 -1 -1 -1 2 4 6 6 5 -1 -1 -2 -4 -6 -6 -2 1
-0 0 1 1 -0 -2 -1 1 1 -3 -4 -4 -2 -2 -1 -1 -2 0 1 0 1 3 5 5 7 7 4 -0 -1 1 -0 -0 1 4 3 4 3 1 -1 -1 -2 -3 -4 -5 -3
-0 -1 1 1 1 0 -2 -2 1 1 -3 -3 -2 -3 -2 -1 -1 -1 -3 -2 1 4 3 6 7 4 2 -1 1 2 2 1 2 1 2 1 2 1 -1 -1 -2 -2 -3 -4 -5
-1 -0 1 -1 -1 1 -0 -0 -2 -1 -2 -1 -1 -1 -1 -1 -1 -3 -3 -4 2 4 3 4 7 5 4 -0 -1 1 3 3 3 2 -1 -1 -0 -1 -2 -3 -2 -2 -3 -4 -5
-0 -0 0 -1 -1 1 1 -1 -1 -2 -2 -2 -3 -2 -1 -2 -2 -3 -4 -3 1 4 4 4 6 6 5 4 4 6 4 2 2 2 1 2 -0 -1 -1 -1 -2 -2 -3 -5 -5

GFSSW_850_dewp_087.txt.gz
Dewpoint
-11 -18 -14 -15 -20 -22 -20 -21 -23 -25 -29 -31 -32 -34 -34 -35 -34 -33 -29 -25 -16 -6 -8 -9 -12 -6 -4 -7 -5 -5 -3 -3 -4 -4 -5 -7 -7 -4 -0 4 5 5 5 6 6
-8 -9 -14 -17 -16 -18 -25 -25 -24 -25 -25 -26 -29 -31 -33 -34 -34 -29 -10 -14 -13 -5 -6 -7 -11 -9 -10 -8 -5 -5 -3 -4 -6 -6 -6 -7 -6 -6 0 4 4 5 5 6 7
-9 -8 -10 -15 -19 -21 -19 -20 -21 -20 -27 -27 -26 -28 -30 -33 -29 -20 -2 -8 -3 -6 -5 -4 -5 -6 -3 -4 -5 -5 -5 -5 -6 -6 -7 -6 -5 -5 1 1 3 3 4 6 6
-9 -11 -12 -13 -14 -14 -17 -16 -16 -19 -19 -22 -27 -27 -28 -30 -19 -6 -2 -3 -2 -1 -1 -4 -3 -3 -3 -3 -4 -4 -5 -5 -6 -7 -5 -4 -3 2 3 -0 3 5 5 6 8
-6 -12 -15 -17 -18 -17 -17 -16 -15 -16 -17 -17 -20 -26 -23 -22 -27 -24 -28 -3 -1 -1 -2 -5 -7 -4 -3 -4 -5 -5 -6 -6 -6 -6 -4 -4 -4 -2 1 2 3 5 7 8 9
-7 -13 -16 -18 -20 -21 -21 -20 -19 -17 -18 -18 -16 -19 -15 -11 -25 -19 -19 -16 -3 -4 -3 -4 -8 -9 -4 -4 -4 -4 -6 -5 -4 -4 -4 -4 -2 5 2 1 7 8 9 9 9
-14 -17 -19 -20 -21 -21 -22 -22 -22 -22 -22 -20 -18 -15 -10 -30 -29 -28 -28 -25 -13 -11 -9 -5 -7 -6 -5 -3 -4 -3 -2 -3 -4 -5 -5 -3 -1 2 1 7 9 9 7 9 10
-15 -17 -18 -19 -20 -21 -22 -22 -22 -23 -22 -17 -15 -13 -13 -29 -31 -32 -30 -26 -23 -4 -6 -6 -4 -5 -4 -4 -2 -2 -2 -2 -6 -4 -3 -2 -0 -2 0 9 9 9 9 9 10
-13 -16 -17 -18 -19 -20 -22 -23 -21 -11 -8 -11 -14 -11 -16 -22 -23 -7 -2 -5 -9 -17 -2 -2 -1 -1 -2 -2 -2 -1 -2 -2 -4 -3 -2 -1 -1 -3 1 8 9 10 9 8 9
-6 -15 -17 -18 -18 -20 -21 -22 -13 -1 1 -6 0 -4 -20 -17 -10 -2 -0 -1 -3 -5 -4 -1 -1 1 0 -1 -3 -4 0 -0 -1 -2 -3 -3 -2 -3 0 5 5 7 9 8 9
-0 -10 -15 -16 -19 -19 -20 -17 -8 -2 -5 -2 -1 -3 -13 -9 -6 -2 0 -1 -3 -7 -2 0 0 3 1 0 -3 -3 -1 -1 -2 -3 -3 -3 -2 -3 -3 4 6 7 9 9 9
-0 -3 -14 -16 -18 -19 -12 -0 -1 -1 1 -1 -3 -3 -4 -2 0 -3 -1 -1 -3 -3 -2 -0 2 -0 -1 -0 -0 -1 -0 -0 -2 -3 -2 -2 -2 -2 -0 2 3 6 8 9 8
-1 -1 -10 -16 -17 -18 -8 1 -6 -3 2 1 0 0 -3 -4 -1 -2 -6 -2 -2 -2 -2 -1 -1 -2 -1 -0 1 0 1 0 -1 -2 -2 -1 -0 -1 -2 3 4 6 6 7 8
-2 -2 -4 -15 -16 -10 -7 2 -9 -1 3 -1 1 -2 -1 -2 -0 -9 -5 -10 -2 -1 -2 -3 -5 -1 -1 -0 -0 1 -1 -1 -1 -0 -2 -1 3 -0 -2 -2 3 4 7 7 7
-2 -2 -2 -5 -10 -12 -11 -12 -13 3 -4 -11 -2 -3 -2 -1 -4 -3 -3 -5 -8 -2 -2 -1 -2 -2 -1 0 -1 -1 -1 -0 -0 1 1 0 2 0 -1 -1 -2 0 5 6 5
-3 -4 -3 -5 -5 -10 -11 -11 -1 4 -1 -6 -3 -2 -2 -2 -4 -4 -1 -3 -4 -6 -4 -3 -5 -4 -3 -3 -1 -1 -1 0 2 2 5 2 2 1 -1 -1 -1 0 3 5 5
-6 -4 -4 -3 -3 -4 -6 -6 4 2 -5 -3 -4 -6 -5 -4 -1 -1 -1 -2 -3 -3 -3 -3 -4 -5 -4 -2 -1 -1 1 3 5 5 4 1 3 1 -1 -2 -2 -2 0 3 4
-4 -3 -5 -4 -3 -2 -4 1 1 -5 -0 -4 -5 -5 -2 -7 -4 0 -3 -2 -1 -3 -2 -5 -6 -4 -5 -3 -0 1 1 3 2 5 3 2 3 0 -1 -1 -1 -1 -1 -1 2
-3 -4 -6 -7 -3 -1 -1 0 -4 -2 -4 -4 -6 -3 -2 -7 -6 -5 1 2 2 3 1 2 -4 -5 -5 -5 -3 1 2 -1 3 5 6 4 3 1 -1 -1 -3 -3 2 4 1
-5 -5 -6 -6 -2 -0 -1 -6 -6 -4 -6 -4 -5 -4 -5 -6 -8 -8 -1 1 2 1 3 3 2 -2 -3 -6 -5 -2 -1 3 2 2 3 3 4 1 1 -0 -1 -2 0 4 3
-4 -3 -5 -5 -2 -1 -2 -4 -4 -7 -5 -7 -2 -4 -3 -4 -4 -4 -1 -1 -1 -1 3 3 3 1 -2 -3 -3 -2 -2 1 1 3 2 4 3 3 1 -1 -1 -0 -3 0 3
-3 -1 -4 -2 -1 -2 -2 -4 -6 -5 -6 -4 -3 -3 -5 -5 -4 -8 -5 -4 -7 3 3 3 6 7 3 -0 -2 -4 -3 -2 1 0 5 4 2 -1 1 0 -0 -1 -3 -5 -2
-3 -3 -3 -1 -1 -2 -4 -4 -4 -5 -6 -3 -2 -2 -3 -5 -10 -4 -4 -5 -2 -1 -3 -2 3 1 2 -0 0 2 1 -1 0 1 2 5 2 -1 -1 -1 -1 -1 -4 -3 -4
-3 -2 -2 -1 -1 -3 -3 -2 -2 -3 -4 -6 -4 -3 -2 -1 -2 -1 -1 -4 -4 -6 -5 2 2 -2 -1 5 4 3 3 3 5 4 1 2 -0 -0 -0 -0 -1 -2 -3 -4 -4
-3 -2 -3 -1 -1 -1 -3 -4 -3 -3 -3 -3 -4 -4 -2 -1 -2 -3 -4 -5 -5 -2 -2 3 4 3 2 2 2 3 2 3 5 5 3 -1 -0 -1 -2 -0 -1 -3 -3 -3 -3
-2 -3 -2 -1 -3 -1 -0 -2 -3 -4 -2 -1 -3 -3 -4 -3 -3 -4 -3 -2 -2 -0 3 3 4 4 3 3 3 2 1 1 4 4 3 -0 -1 -1 -2 -2 -2 -2 -2 -2 -3
-3 -4 -4 -3 -3 -0 -1 -2 -2 -4 -3 -4 -3 -3 -2 -2 -3 -3 -3 -3 -2 -1 -1 -0 3 4 3 2 2 2 1 3 3 2 1 2 1 -1 -1 -1 -1 -2 -3 -3 -3

GFSSW_850_dewp_093.txt.gz
Dewpoint
-10 -11 -13 -14 -15 -18 -18 -21 -22 -22 -23 -23 -23 -25 -30 -31 -26 -23 -9 -10 -6 -17 -13 -2 -1 -5 -5 -5 -6 -7 -8 -7 -8 -9 -10 -12 -9 -9 -7 -7 -7 -7 -2 1 4
-8 -10 -12 -15 -16 -17 -19 -20 -21 -21 -21 -22 -23 -21 -21 -27 -30 -14 -10 -11 -12 -20 -10 -2 -2 -6 -6 -6 -7 -7 -7 -8 -10 -11 -11 -11 -10 -9 -9 -8 -8 -7 -3 2 5
-6 -10 -11 -14 -16 -17 -19 -21 -22 -22 -22 -23 -23 -23 -22 -22 -9 -9 -10 -5 -7 -8 -6 -3 -4 -6 -6 -8 -8 -8 -7 -10 -10 -11 -11 -10 -10 -10 -9 -7 -7 -5 -4 -0 5
-8 -10 -14 -16 -18 -20 -21 -22 -22 -23 -24 -24 -25 -25 -24 -21 -10 -9 -8 -12 -4 -6 -1 -3 -6 -7 -7 -7 -9 -8 -10 -10 -10 -12 -11 -9 -10 -9 -9 -8 -8 -7 -0 3 4
-7 -12 -14 -17 -19 -20 -21 -21 -22 -23 -23 -24 -25 -26 -24 -7 -7 -10 -18 -21 -18 -4 -2 -4 -4 -6 -6 -8 -9 -8 -8 -8 -9 -9 -10 -10 -11 -10 -10 -9 -8 -4 3 3 4
-1 -9 -16 -18 -19 -20 -20 -21 -21 -22 -23 -24 -25 -23 -5 -7 -14 -14 -12 -9 -7 -1 -2 -4 -3 -4 -5 -7 -7 -8 -8 -7 -7 -8 -9 -9 -9 -10 -10 -9 -4 1 4 4 7
-1 -3 -13 -16 -18 -19 -20 -20 -21 -23 -24 -25 -24 -17 -1 -10 -15 -10 -7 -9 -7 -7 -3 -3 -3 -6 -6 -5 -7 -7 -5 -6 -7 -8 -8 -9 -9 -10 -11 -7 -2 1 5 5 6
-0 -1 -3 -12 -16 -18 -19 -20 -21 -23 -25 -24 -19 -5 -3 -12 -10 -10 -9 -11 -8 -5 -5 -4 -4 -4 -5 -6 -5 -4 -5 -3 -6 -8 -9 -9 -7 -9 -6 -3 -3 2 4 5 5
-1 -1 -1 -2 -14 -17 -20 -21 -22 -22 -18 -16 -2 2 -4 -10 -10 -12 -9 -14 -15 -14 -13 -9 -5 -5 -4 -3 -2 -4 -3 -3 -4 -8 -8 -7 -6 -8 -3 -2 -3 -0 2 4 5
-1 -1 -1 -2 -8 -16 -19 -22 -10 -5 -0 2 2 1 -2 -15 -7 -4 -1 -1 -7 -9 -14 -8 -7 -6 -6 -4 -1 -2 -3 -3 -3 -6 -7 -7 -8 -7 -9 -5 -4 -3 -1 3 5
-2 -2 -1 -2 -7 -15 -19 -3 -4 -1 1 -5 -6 -5 -8 -11 -6 -9 -4 1 0 -4 -9 -9 -6 -4 -6 -5 -5 -4 -4 -3 -5 -7 -7 -5 -6 -9 -9 -8 -6 -5 -3 1 4
-2 -2 -2 -2 -4 -14 -9 -2 -2 -1 -3 -6 -8 -8 -8 -9 -8 -7 -4 -2 -1 -2 -8 -12 -6 -9 -6 -5 -4 -3 -2 -2 -4 -6 -6 -4 -5 -9 -10 -10 -7 -6 -3 -0 4
-1 -3 -4 -3 -7 -7 -2 -1 0 -1 -3 -9 -8 -5 -5 -4 -6 -8 -10 -3 -4 -3 -5 -6 -10 -7 -8 -5 -2 -2 -1 -1 -3 -5 -5 -4 -3 -6 -9 -10 -8 -6 -4 -3 2
-2 -3 -4 -4 -3 -1 -3 1 0 0 -0 -11 -4 -3 -2 -3 -4 -6 -10 -9 -7 -4 -6 -6 -9 -8 -5 -5 -4 0 -3 -4 -4 -3 -0 -4 -1 -6 -7 -7 -5 -5 -4 -3 -0
-3 -3 -3 -4 -3 -3 -2 -1 -1 3 -9 -11 -6 -3 -2 -3 -4 -6 -5 -10 -8 -7 -6 -6 -6 -7 -6 -4 -5 -2 -4 -4 -3 -2 -1 -3 -2 -4 -7 -7 -7 -7 -6 -4 -0
-3 -3 -3 -3 -1 -3 -2 0 1 2 -8 -11 -6 -4 -3 -2 -4 -4 -3 -5 -9 -9 -9 -5 -8 -7 -8 -8 -6 -5 -3 -2 -2 -1 2 -1 -1 -2 -6 -5 -6 -5 -4 -3 0
-3 -2 -4 -3 -3 0 -1 -1 -2 -7 -17 -15 -8 -6 -7 -3 -3 -4 -2 -3 -5 -6 -8 -7 -5 -6 -6 -7 -5 -3 -1 3 7 7 3 -2 -1 -1 -5 -7 -7 -6 -5 -1 1
-1 -2 -2 -2 -3 -2 -2 -3 -4 -14 -12 -8 -6 -6 -5 -5 -3 -2 -2 -2 -4 -8 -7 -9 -7 -7 -7 -5 -4 -3 -1 1 5 6 5 -1 -1 -3 -6 -7 -6 -5 -5 -1 1
-2 -2 -1 -1 -2 -2 -3 -2 -9 -13 -16 -10 -7 -6 -5 -6 -6 -1 -2 -3 -3 -4 -2 -5 -10 -11 -14 -12 -8 -4 -0 -3 0 1 4 2 -2 -3 -4 -3 -5 -6 -4 -2 1
-1 -1 -2 -2 -2 -2 -3 -4 -12 -15 -7 -8 -5 -9 -8 -5 -6 -6 -0 -2 -3 -4 -2 -1 1 -5 -12 -10 -9 -9 -9 -1 -2 4 5 1 -1 -2 -3 -3 -4 -5 -6 -5 -1
-1 -1 -3 -3 -2 -2 -1 -6 -11 -13 -10 -7 -9 -8 -7 -6 -7 -7 -3 -1 -4 -4 -3 -3 1 -1 -3 -3 -6 -6 -6 -6 -3 -2 2 4 0 -4 -3 -3 -3 -5 -4 -3 -1
-1 -1 -1 -2 -2 -4 -2 -8 -11 -13 -12 -8 -7 -6 -6 -8 -8 -9 -12 -8 -8 -9 -7 -4 0 1 -1 -4 -2 -1 -5 -6 0 -1 -1 0 1 -3 -3 -3 -1 -2 -3 -3 1
-1 -4 -1 -1 -1 -4 -6 -8 -10 -10 -11 -11 -9 -8 -8 -7 -9 -11 -11 -8 -4 -7 -5 -4 -2 1 -2 -3 -2 -0 -2 -3 -2 -0 1 4 3 -5 -5 -5 -5 -4 -5 -3 -1
-1 -1 -4 -1 -4 -4 -5 -7 -7 -10 -10 -11 -11 -12 -8 -7 -10 -11 -12 -8 -2 -4 -3 -4 -4 -2 -3 -2 -3 1 -0 -1 -0 3 2 0 -2 -5 -5 -5 -5 -5 -4 -4 -2
-2 -2 -5 -1 -2 -3 -4 -3 -8 -7 -7 -9 -9 -10 -10 -10 -12 -11 -12 -11 -7 -2 -4 -3 -4 -6 -6 -7 -6 -5 -3 -3 -2 -1 2 0 -1 -2 -3 -4 -5 -5 -5 -5 -5
-2 -4 -6 -6 -6 -5 -4 -4 -3 -8 -10 -5 -7 -10 -9 -9 -9 -8 -8 -8 -8 -8 -4 -0 -1 -4 -5 -5 -5 -5 -8 -8 -9 -7 -4 -3 -2 -6 -6 -5 -5 -5 -6 -6 -6
-2 -4 -2 -4 -6 -4 -4 -7 -6 -6 -7 -8 -6 -8 -6 -8 -9 -8 -6 -4 -6 -4 -1 -0 -0 1 -1 -6 -4 -1 -3 -6 -7 -10 -8 -4 -4 -6 -3 -4 -4 -5 -6 -7 -6

GFSSW_850_dewp_096.txt.gz
Dewpoint
-6 -8 -15 -16 -16 -17 -19 -22 -23 -23 -24 -25 -25 -25 -25 -23 -17 -17 -12 -8 -7 -7 -12 -8 -3 -3 -4 -5 -6 -6 -4 -4 -7 -8 -9 -11 -11 -10 -9 -10 -8 -8 -8 -5 3
-12 -11 -13 -15 -16 -18 -19 -21 -23 -24 -24 -25 -26 -26 -26 -25 -22 -13 -7 -9 -10 -11 -13 -6 -3 -3 -4 -6 -6 -6 -4 -5 -9 -10 -10 -11 -11 -10 -10 -10 -9 -9 -6 -2 0
-9 -15 -17 -18 -19 -19 -20 -22 -23 -24 -25 -25 -26 -27 -27 -26 -15 -2 -6 -10 -6 -7 -5 -7 -3 -2 -5 -7 -7 -7 -4 -7 -8 -10 -10 -11 -11 -11 -11 -10 -9 -8 -6 -5 -1
-7 -11 -17 -18 -19 -20 -21 -22 -22 -23 -24 -25 -25 -26 -27 -25 -5 -7 -12 -12 -18 -9 -9 -3 -4 -3 -5 -5 -7 -6 -8 -8 -9 -10 -10 -10 -11 -10 -10 -10 -10 -9 -7 -1 1
-3 -7 -11 -17 -18 -20 -21 -22 -22 -23 -24 -25 -26 -25 -26 -5 -7 -14 -11 -10 -15 -17 -1 -2 -3 -4 -4 -6 -7 -7 -8 -9 -9 -10 -8 -9 -9 -9 -10 -12 -11 -10 -4 0 1
-1 -2 -5 -9 -14 -18 -20 -21 -22 -23 -24 -26 -26 -25 -8 -3 -18 -15 -13 -11 -9 -3 -3 -2 -4 -5 -5 -6 -6 -7 -8 -8 -8 -8 -7 -7 -8 -9 -9 -11 -11 -9 -2 1 3
-0 -1 -1 -4 -9 -15 -19 -21 -22 -24 -25 -26 -25 -18 0 -12 -16 -12 -11 -7 -10 -9 -7 -3 -4 -4 -4 -4 -4 -5 -4 -6 -6 -7 -7 -7 -6 -7 -9 -10 -11 -7 -3 2 2
-1 -1 -1 -1 -5 -14 -18 -21 -23 -24 -27 -25 -20 -9 -1 -20 -10 -10 -11 -11 -11 -9 -7 -6 -4 -3 -3 -4 -5 -4 -4 -2 -5 -6 -6 -7 -4 -7 -9 -10 -10 -3 -2 2 3
-2 -3 -2 -2 -2 -7 -18 -23 -26 -23 -15 -9 -8 1 -1 -6 -9 -10 -11 -13 -14 -12 -9 -7 -5 -3 -3 -2 -1 -3 -1 -2 -3 -6 -6 -7 -6 -9 -7 -5 -4 -4 -3 1 3
-1 -1 -1 -2 -3 -6 -15 -23 -27 -7 -4 3 3 1 -0 -9 -12 -7 -6 -2 -8 -14 -14 -14 -14 -7 -4 -3 1 -1 -1 -2 -2 -5 -5 -5 -6 -7 -10 -4 -3 -4 -4 -2 2
-2 -1 -2 -2 -3 -7 -13 -12 -4 -0 4 1 0 -0 -3 -9 -14 -10 -9 -5 -1 -6 -7 -12 -12 -8 -7 -5 -5 -4 -3 -2 -4 -6 -5 -4 -5 -6 -7 -9 -7 -7 -5 -4 0
-2 0 -1 -2 -5 -10 -13 0 -1 -1 -2 -6 -8 -9 -11 -12 -12 -12 -9 -6 -1 -0 -4 -8 -9 -10 -11 -9 -6 -5 -3 -2 -3 -5 -3 -4 -5 -5 -6 -7 -9 -10 -7 -4 -0
-3 0 -1 -3 -7 -4 -1 -3 -1 -1 -3 -9 -11 -10 -10 -9 -9 -10 -11 -9 -5 -2 -3 -6 -10 -12 -10 -10 -7 -3 -2 -1 -0 -2 -3 -3 -3 -4 -5 -6 -8 -9 -8 -6 -1
-6 -1 -1 -4 -5 -1 -2 -0 -2 -0 -0 -13 -8 -7 -7 -5 -6 -7 -8 -10 -9 -5 -7 -5 -7 -8 -11 -7 -9 -5 -4 -3 -1 1 1 -2 1 -2 -4 -6 -7 -8 -8 -6 -5
-3 -4 -3 -4 -3 -3 -3 -1 -1 1 -5 -12 -6 -5 -4 -5 -4 -7 -7 -9 -10 -7 -7 -5 -6 -6 -7 -8 -6 -5 -6 -4 -1 2 1 0 1 -1 -4 -5 -6 -5 -5 -5 -4
-3 -4 -3 -3 -3 -2 -3 -1 1 1 -4 -16 -7 -5 -4 -3 -5 -4 -4 -8 -10 -11 -11 -9 -9 -9 -8 -8 -8 -8 -5 -3 -2 -0 4 2 2 -0 -3 -4 -6 -7 -6 -5 -3
-4 -4 -2 -1 -2 -0 -0 -1 -3 -5 -16 -18 -11 -7 -5 -5 -3 -7 -3 -2 -4 -5 -6 -9 -8 -9 -8 -5 -7 -7 -3 2 5 6 8 2 2 1 -2 -5 -6 -4 -4 -3 -1
-5 -2 -2 -1 -3 -2 -2 -3 -2 -10 -10 -17 -9 -8 -6 -9 -5 -4 -4 -3 -4 -5 -6 -7 -7 -12 -8 -5 -4 -6 -3 2 4 8 5 5 4 0 -4 -5 -7 -7 -6 -2 -0
-3 -2 -1 -1 -2 -1 -2 -1 -6 -8 -12 -10 -10 -11 -9 -8 -5 -4 -2 -3 -5 -4 -3 -1 -3 -14 -10 -7 -6 -5 -1 -3 1 1 8 6 4 1 -4 -4 -5 -5 -5 -1 0
-2 -1 -1 -1 -1 -1 -1 -1 -8 -11 -12 -10 -7 -8 -8 -9 -6 -6 -3 -4 -1 -5 -3 1 2 -10 -11 -10 -8 -6 -6 -0 0 4 5 3 5 3 0 -2 -3 -4 -4 -3 -0
-3 -1 -3 -1 -1 -1 -1 -4 -8 -10 -11 -10 -8 -9 -9 -5 -0 -6 -7 0 -3 -4 -6 -3 -1 1 -10 -11 -9 -9 -7 -7 -5 -1 2 5 4 3 3 1 -0 -1 -3 -4 -3
-3 1 -2 -1 0 -4 -2 -6 -8 -10 -14 -12 -10 -8 -6 -5 -6 -6 -7 -1 -8 -8 -7 -3 -1 2 1 -5 -4 -2 -6 -6 -2 -1 -1 1 2 2 0 -1 -1 -2 -4 -3 -2
-2 -3 -2 -0 1 -2 -5 -7 -8 -9 -12 -13 -11 -11 -11 -9 -5 -8 -10 -6 -5 -6 -2 -2 -2 1 -1 -4 -3 -1 -2 -4 -5 -3 1 5 3 -1 -1 -3 -5 -4 -5 -4 -2
-1 -1 -4 0 -2 -4 -0 -4 -8 -11 -10 -10 -12 -13 -12 -9 -9 -7 -11 -9 -4 -5 -3 -3 -6 -3 1 -2 -4 -1 -1 -1 -0 3 1 1 -1 1 3 -2 -4 -5 -5 -5 -4
-2 -3 -4 1 -1 -3 -5 -2 -3 -7 -10 -11 -12 -11 -11 -7 -9 -9 -11 -13 -11 -4 -6 -3 -6 -7 -8 -8 -8 -7 -4 -3 -1 -0 2 0 -1 -3 -3 -4 -5 -5 -4 -4 -5
-2 -4 -7 -6 -6 -2 -4 -5 -6 -4 -8 -7 -7 -9 -12 -10 -10 -10 -13 -10 -9 -10 -6 -4 -1 -3 -4 -8 -9 -7 -8 -7 -7 -7 -6 -4 -2 -5 -6 -6 -5 -5 -5 -5 -5
-2 -3 -3 -4 -1 -2 -3 -4 -8 -8 -6 -5 -8 -5 -6 -9 -8 -12 -7 -5 -4 -3 -2 -1 -1 -0 0 -4 -6 -2 -6 -9 -10 -11 -10 -6 -6 -7 -5 -5 -4 -3 -2 -3 -4

GFSSW_850_dewp_102.txt.gz
Dewpoint
-12 -15 -21 -23 -23 -23 -22 -23 -24 -25 -25 -26 -26 -27 -28 -29 -31 -30 -28 -19 -13 -11 -9 -5 -7 -9 -5 -1 -2 -4 -3 -2 -4 -4 -5 -6 -8 -8 -10 -10 -9 -10 -10 -9 0
-4 -9 -12 -18 -20 -22 -23 -23 -24 -24 -25 -26 -27 -28 -28 -29 -31 -27 -13 -9 -10 -10 -10 -8 -5 -8 -2 -2 -2 -4 -3 -3 -5 -6 -5 -5 -6 -7 -10 -10 -10 -9 -4 -5 2
-3 -3 -6 -9 -13 -18 -21 -23 -24 -24 -24 -25 -26 -28 -28 -29 -28 -15 -11 -16 -10 -8 -8 -7 -5 -8 -0 -2 -3 -5 -3 -5 -5 -6 -5 -5 -6 -7 -10 -9 -10 -10 -2 -0 5
-3 -3 -4 -5 -8 -11 -17 -21 -23 -23 -23 -24 -25 -26 -27 -28 -21 -4 -10 -14 -13 -10 -11 -12 -7 -7 -5 -1 -2 -3 -5 -6 -6 -6 -6 -6 -6 -8 -8 -9 -9 -9 -10 -1 3
-0 -0 -2 -4 -7 -13 -17 -22 -23 -24 -24 -23 -23 -24 -24 -15 -29 -29 -27 -22 -10 -10 -10 -10 -4 -7 -4 -3 -3 -3 -3 -4 -5 -6 -6 -7 -8 -8 -8 -9 -8 -7 -9 -4 1
-2 -4 -4 -4 -5 -7 -8 -14 -25 -25 -25 -24 -24 -23 -12 -2 -27 -19 -10 -10 -9 -7 -10 -4 -4 -4 -2 -2 -2 -3 -3 -4 -5 -6 -6 -6 -6 -6 -7 -7 -7 -7 -8 -9 -3
-3 -5 -8 -6 -7 -8 -11 -11 -24 -28 -26 -25 -24 -22 -4 -23 -26 -27 -28 -19 -12 -8 -8 -10 -7 -2 -2 -2 -3 -3 -2 -3 -4 -4 -5 -5 -4 -5 -7 -7 -7 -7 -7 -8 -8
-2 -2 -3 -8 -8 -7 -8 -20 -31 -28 -28 -27 -25 -16 -2 -28 -23 -25 -21 -22 -14 -10 -9 -10 -10 -10 -5 -4 -2 -1 -2 -0 -4 -5 -5 -5 -2 -5 -6 -6 -6 -6 -6 -7 -7
-1 -2 -2 -5 -8 -8 -10 -22 -30 -29 -29 -27 -22 -5 -1 -9 -8 -10 -9 -10 -12 -13 -13 -13 -11 -9 -5 -2 -0 -0 1 1 -1 -4 -4 -4 -2 -5 -5 -6 -6 -6 -6 -7 -4
-4 -3 -4 -5 -8 -9 -11 -22 -13 -4 -2 -6 1 3 -6 -15 -10 -6 -9 -6 -8 -6 -6 -15 -11 -9 -3 -0 2 1 1 0 0 -3 -3 -3 -3 -5 -5 -6 -7 -6 -8 -6 0
-2 -3 -4 -5 -8 -9 -6 -8 -2 -2 -2 -0 2 -1 -6 -6 -4 -4 -5 -12 -11 -9 -3 -10 -9 -8 -9 -2 -2 -1 0 1 -1 -4 -4 -4 -3 -4 -3 -4 -6 -6 -5 -5 -1
-4 -4 -4 -4 -7 -8 -3 -1 -1 -0 -0 -2 -2 -5 -3 -3 -1 -10 -6 -7 -10 -6 -3 -5 -7 -10 -12 -11 -6 -1 -0 -0 -2 -4 -4 -4 -3 -2 -2 -3 -5 -5 -6 -5 -3
-5 -5 -5 -4 -5 -7 -4 -3 -2 0 -1 -2 -6 -7 -10 -14 -7 -13 -13 -13 -12 -7 -2 1 -3 -10 -11 -11 -10 -7 -3 -2 -2 -4 -5 -4 -1 -0 -2 -2 -2 -3 -4 -6 -1
-6 -6 -6 -4 -5 -3 -6 -4 -2 1 0 -3 -4 -11 -11 -11 -7 -13 -17 -14 -10 -11 -7 1 -0 -0 -6 -10 -10 -9 -11 -8 -7 -4 -2 0 3 -0 -0 -1 -2 -3 -3 -4 -0
-4 -4 -2 -3 -4 -6 -8 -4 -2 0 0 -11 -9 -15 -12 -9 -8 -6 -11 -13 -11 -7 -7 -4 -0 1 1 -3 -9 -9 -9 -7 -7 -5 -2 -0 3 1 -0 0 -1 -3 -3 -4 0
-6 -6 -4 -5 -5 -8 -4 -3 -1 -0 -1 -7 -8 -7 -8 -10 -6 -5 -7 -9 -10 -8 -8 -7 -8 -7 -4 -4 -6 -10 -8 -7 -6 -2 2 3 4 2 1 -0 -1 -3 -3 -3 -1
-7 -7 -6 -3 -5 -6 -3 -1 -0 -0 -11 -15 -9 -9 -8 -4 -6 -4 -3 -5 -5 -3 -4 -7 -7 -9 -10 -9 -8 -6 -4 1 2 4 3 0 2 0 -1 -1 -2 -2 -3 -3 -2
-5 -4 -4 -5 -6 -5 -3 0 1 -10 -8 -11 -7 -8 -7 -3 -1 -1 -1 -3 -5 -5 -4 -3 -3 -8 -10 -9 -6 -5 -3 2 3 6 4 0 4 4 2 1 -0 -1 -2 -0 5
-5 -5 -6 -8 -6 -3 -1 -1 -0 -6 -6 -6 -7 -7 -3 0 1 0 3 -0 -3 -6 -1 0 -4 -3 -10 -10 -9 -6 -1 -2 1 4 5 4 3 2 3 3 2 -1 -1 2 8
-3 -4 -8 -5 -5 -2 -0 -2 -3 -6 -7 -8 -4 -7 -4 -3 -3 1 3 3 3 1 0 -0 3 -1 -0 -3 -9 -5 -4 -1 0 2 3 4 4 5 5 5 3 2 1 4 8
-3 -3 -6 -3 -4 -1 -1 -2 -5 -8 -8 -6 -4 -3 -6 -5 -7 2 2 1 2 2 0 -2 2 1 0 1 -5 -5 -4 -2 0 2 2 4 3 5 5 4 4 4 3 2 0
-3 -3 -4 -2 -1 -1 -0 -1 -6 -7 -6 -6 -6 -5 -6 -7 -7 1 3 2 2 2 4 -0 1 4 2 1 0 1 -2 0 4 3 2 3 3 2 2 3 5 4 4 3 0
-2 -3 -5 -2 -3 -1 -3 -4 -4 -3 -3 -6 -5 -6 -7 -7 -6 -3 2 -1 -0 1 3 -0 3 3 3 2 3 -1 -0 2 1 0 3 4 1 3 4 3 2 3 4 3 5
-3 -3 -4 -1 -1 -1 0 -1 -2 -3 -2 -4 -5 -7 -8 -8 -8 -5 -4 -3 -4 -1 -1 -1 2 -2 1 4 3 -1 -3 2 4 3 2 -0 -2 5 5 4 2 2 3 4 5
-3 -4 -4 -5 -3 -2 -1 -2 -1 -2 -1 -2 -3 -3 -5 -8 -8 -8 -7 -7 -8 -4 -1 -0 1 -0 -1 -3 -3 -3 -5 -3 5 4 3 2 3 5 3 4 5 4 5 4 6
-3 -2 -3 -3 -4 -4 -3 -2 -1 -1 -1 -0 -2 -3 -3 -2 -4 -1 -1 -1 -4 -3 -1 -0 1 0 -0 -2 -1 -1 -3 -4 -2 1 -0 -4 -7 -4 1 3 4 4 4 5 6
-4 -3 -4 -4 -4 -5 -4 -4 -4 -3 -2 -3 -3 -1 -1 -1 -1 -2 -1 -2 -2 -3 -2 2 2 2 2 1 -0 -1 -3 -4 -6 -4 -1 -4 4 -0 4 4 3 3 4 5 5

GFSSW_850_dewp_105.txt.gz
Dewpoint
-6 -7 -8 -10 -19 -23 -24 -25 -25 -25 -26 -26 -27 -27 -29 -30 -31 -30 -27 -22 -21 -20 -13 -14 -6 -7 -5 -0 -3 -2 -1 -0 -3 -4 -5 -6 -6 -7 -6 -9 -9 -9 -8 -6 -3
-5 -7 -9 -11 -13 -18 -22 -24 -24 -24 -24 -25 -26 -27 -28 -29 -30 -30 -14 -9 -7 -19 -12 -10 -4 -5 -4 -2 -2 -3 -2 -1 -4 -6 -5 -5 -5 -5 -7 -7 -9 -10 -8 -6 -5
-2 -4 -5 -12 -14 -22 -25 -25 -25 -24 -24 -25 -25 -27 -27 -28 -29 -20 -10 -16 -9 -8 -11 -8 -7 -3 -1 -2 -3 -4 -2 -4 -5 -5 -5 -5 -5 -5 -7 -6 -8 -9 -9 -2 0
-8 -7 -8 -9 -13 -18 -23 -29 -29 -28 -26 -25 -25 -26 -27 -27 -23 -4 -8 -9 -11 -10 -9 -7 -4 -5 -4 -1 -2 -3 -5 -4 -4 -5 -5 -5 -6 -6 -7 -7 -7 -8 -9 -6 2
-10 -12 -13 -17 -15 -19 -26 -29 -31 -29 -27 -26 -24 -23 -24 -16 -26 -27 -25 -29 -22 -11 -11 -10 -6 -6 -6 -5 -3 -2 -3 -4 -4 -4 -4 -5 -6 -6 -7 -7 -7 -8 -8 -7 -3
-5 -7 -7 -8 -12 -14 -19 -28 -31 -31 -29 -28 -24 -23 -18 -4 -26 -26 -17 -11 -12 -10 -6 -5 -5 -5 -6 -5 -5 -3 -3 -3 -3 -3 -3 -5 -5 -6 -5 -5 -6 -7 -7 -7 -6
-8 -3 -4 -9 -11 -14 -16 -27 -31 -29 -30 -28 -24 -22 -12 -30 -32 -28 -25 -25 -22 -21 -11 -4 -6 -2 -2 -2 -2 -3 -2 -3 -3 -4 -4 -4 -4 -5 -5 -5 -6 -6 -6 -6 -6
-8 -8 -8 -11 -13 -16 -23 -30 -30 -26 -25 -28 -27 -21 -8 -33 -30 -27 -17 -23 -26 -24 -14 -9 -9 -11 -9 -8 -3 -2 -1 1 -3 -4 -5 -5 -2 -4 -5 -5 -5 -5 -5 -5 -5
-4 -3 -6 -7 -8 -11 -16 -27 -28 -9 -8 -11 -18 -17 -10 -17 -13 -5 -4 -9 -10 -16 -11 -10 -11 -11 -8 -2 -1 -1 1 0 -1 -3 -4 -4 -2 -5 -5 -5 -5 -4 -3 -6 -6
-7 -7 -6 -7 -7 -8 -15 -17 -17 -1 -2 -2 -0 0 -11 -11 -4 -9 -4 -6 -7 -10 -6 -11 -13 -9 -3 -1 0 -0 2 0 0 -2 -3 -2 -2 -4 -5 -5 -4 -3 -4 -5 -6
-7 -6 -6 -7 -8 -10 -12 -6 -8 -6 -7 -3 -3 1 -3 -5 -5 -5 -4 -4 -7 -9 -4 -9 -10 -8 -8 -3 -4 -3 -0 0 -1 -3 -3 -3 -3 -4 -6 -5 -3 -3 -4 -4 -5
-7 -8 -8 -9 -9 -10 -6 -4 -2 -1 0 -2 -3 -5 -10 -8 -4 -17 -14 -6 -9 -7 -5 -2 -5 -10 -10 -8 -4 -1 -0 0 -1 -3 -3 -2 -2 -5 -5 -3 -3 -3 -3 -3 -4
-6 -7 -6 -7 -9 -8 -7 -4 -5 -2 -1 -2 -8 -6 -8 -11 -5 -10 -14 -8 -8 -8 -5 -4 -2 -4 -9 -9 -9 -8 -3 -2 -0 -2 -4 -4 -3 -5 -5 -3 -3 -2 -3 -3 -3
-7 -7 -6 -6 -7 -8 -7 -6 -6 -1 1 -3 -3 -9 -11 -10 -6 -12 -16 -14 -11 -11 -10 -5 -7 -3 -7 -9 -10 -9 -10 -8 -6 -3 -1 -4 -1 -2 -2 -3 -3 -2 -2 -3 -3
-8 -10 -10 -7 -3 -6 -5 -7 -5 -1 -1 -11 -8 -12 -11 -10 -13 -8 -15 -12 -15 -11 -9 -13 1 -1 -1 -1 -10 -9 -10 -9 -8 -6 -6 -6 2 -2 -1 0 -1 -3 -3 -3 -3
-9 -9 -7 -6 -6 -6 -4 -5 -4 -0 -1 -7 -10 -9 -8 -8 -9 -7 -12 -13 -13 -13 -8 -13 -8 -2 -0 -2 -4 -9 -8 -8 -6 -5 -1 -4 -1 -3 -2 -1 -1 -2 -3 -3 -3
-10 -9 -8 -6 -6 -5 -5 -4 -1 -1 -10 -11 -10 -9 -7 -2 -2 -9 -6 -7 -6 -5 -6 -8 -8 -9 -9 -8 -8 -6 -4 -0 2 4 1 -2 2 -2 -2 -2 -1 2 1 -1 -2
-9 -11 -11 -7 -6 -5 -4 -1 -2 -7 -8 -10 -10 -6 -2 -3 -0 2 -1 -4 -6 -6 -5 -6 -8 -8 -9 -8 -6 -6 -4 1 2 4 3 1 3 0 -1 1 2 2 2 4 2
-7 -9 -8 -2 -6 -6 -2 -4 -4 -4 0 -1 -7 -4 -3 -4 -2 1 3 5 2 0 -3 -2 -4 -8 -10 -11 -9 -6 -3 -6 -2 3 4 3 2 -0 2 3 3 3 3 3 9
-6 -6 -5 -1 -6 -3 -1 -3 -4 -4 -4 -6 -6 -0 -1 -2 -0 -2 4 2 2 2 2 0 3 -2 -2 -8 -9 -7 -6 -3 1 2 3 2 3 2 2 4 4 4 4 5 3
-5 -5 -2 -3 -4 -2 -3 -3 -3 -6 -6 -6 -4 -4 -1 -1 -0 -0 4 2 2 1 1 0 1 1 0 -1 -2 -6 -4 -2 -2 1 1 3 2 0 1 4 4 4 5 5 6
-4 -7 -2 -4 -3 -2 -2 -3 -2 -4 -5 -4 -4 -4 1 -3 -4 -0 4 1 1 1 3 1 1 3 1 2 0 0 -5 -5 2 3 2 2 1 4 3 5 5 6 5 5 4
-4 -3 -5 -2 -3 -4 -2 -1 -4 -3 -3 -3 -4 -4 -2 -4 -5 -5 -4 -4 -2 1 2 1 3 3 4 2 1 1 -2 2 1 2 3 4 3 5 3 4 5 6 7 6 5
-4 -4 -5 -2 -1 -2 -2 -2 -2 -4 -3 -2 -3 -4 -3 -7 -6 -6 -7 -7 -7 -0 -0 0 2 4 4 3 3 1 -3 3 3 3 4 2 3 6 6 5 5 5 5 5 5
-4 -4 -3 -6 -4 -3 -2 -2 -3 -1 -2 -2 -3 -2 -2 -3 -4 -2 -2 -3 -5 -0 -0 0 3 3 2 -1 1 3 -1 -2 4 4 3 1 -1 2 5 4 5 5 6 6 5
-4 -3 -2 -3 -4 -4 -5 -5 -3 -5 -2 -1 0 -2 -2 -2 -1 0 -0 -1 -2 -2 -2 1 3 3 3 1 -1 2 1 -2 -1 3 4 5 -3 1 4 4 4 5 7 7 5
-4 -5 -4 -5 -4 -5 -5 -4 -5 -4 -4 -3 -3 -2 -2 -3 -2 -3 -3 -2 -2 -1 -2 0 3 3 1 1 0 -1 0 -1 -1 1 3 5 3 4 4 3 4 5 6 6 6

GFSSW_850_dewp_108.txt.gz
Dewpoint
-17 -17 -17 -17 -23 -26 -27 -26 -25 -25 -24 -25 -26 -27 -27 -28 -29 -29 -30 -27 -26 -23 -21 -17 -13 -7 -5 -3 -3 -3 -2 -1 -2 -3 -5 -6 -6 -6 -6 -7 -7 -7 -8 -8 -7
-16 -21 -23 -22 -26 -28 -29 -30 -30 -29 -28 -27 -27 -27 -27 -27 -27 -27 -8 -8 -7 -13 -22 -16 -12 -4 -3 -1 -2 -3 -1 -2 -4 -6 -6 -6 -5 -5 -6 -6 -6 -6 -7 -8 -6
-15 -20 -22 -27 -29 -30 -31 -31 -31 -31 -31 -30 -30 -29 -27 -28 -26 -23 -9 -13 -10 -11 -12 -6 -4 -2 -2 -1 -2 -3 -2 -4 -4 -5 -6 -5 -5 -5 -6 -5 -6 -6 -6 -7 -6
-17 -19 -22 -26 -27 -30 -31 -31 -32 -32 -30 -31 -30 -31 -29 -27 -22 -10 -6 -9 -9 -19 -7 -8 -5 -2 -1 -1 -2 -3 -4 -4 -4 -4 -4 -5 -5 -6 -6 -6 -6 -6 -7 -7 -8
-13 -16 -18 -24 -29 -30 -31 -32 -32 -31 -32 -31 -31 -29 -27 -18 -31 -31 -26 -27 -25 -19 -12 -5 -4 -4 -6 -6 -4 -2 -3 -4 -4 -4 -5 -5 -4 -4 -5 -3 -4 -6 -6 -6 -7
-8 -12 -15 -16 -22 -26 -31 -34 -33 -33 -33 -31 -29 -28 -18 -6 -33 -27 -25 -18 -11 -10 -6 -6 -8 -6 -7 -7 -4 -4 -3 -4 -4 -4 -3 -3 -3 -4 -4 -5 -5 -4 -5 -6 -7
-7 -8 -11 -16 -21 -23 -28 -31 -32 -32 -33 -28 -18 -22 -16 -31 -33 -32 -31 -31 -16 -9 -14 -16 -3 -2 -2 -2 -3 -2 -1 -2 -3 -3 -3 -4 -3 -4 -4 -4 -5 -5 -6 -5 -5
-8 -11 -11 -16 -18 -21 -27 -32 -32 -29 -26 -17 -12 -16 -18 -31 -30 -17 -4 -7 -14 -24 -24 -24 -12 -3 -5 -6 -7 -2 -2 1 -2 -3 -3 -4 -0 -4 -5 -5 -5 -5 -5 -5 -4
-9 -10 -11 -13 -15 -17 -24 -31 -28 -22 -8 -7 -7 -9 -12 -17 -13 -7 -2 -5 -7 -7 -19 -17 -9 -9 -8 -4 -2 -2 0 0 -1 -3 -4 -4 -2 -5 -5 -5 -4 -5 -5 -5 -5
-10 -9 -12 -14 -14 -16 -18 -25 -21 -9 -4 -4 1 0 -10 -10 -6 -5 -6 -4 -4 -7 -8 -9 -10 -9 -5 -3 -3 -1 1 0 0 -2 -3 -2 -2 -3 -4 -4 -5 -6 -5 -6 -5
-10 -10 -14 -16 -14 -14 -14 -20 -11 -9 -9 -4 -6 -3 -8 -14 -20 -20 -11 -6 -7 -8 -5 -11 -10 -8 -9 -6 -7 -4 -2 -1 -1 -2 -2 -2 -2 -3 -5 -5 -6 -6 -6 -6 -5
-11 -12 -15 -18 -18 -11 -12 -3 -4 -1 -0 -2 -3 -5 -6 -7 -3 -10 -13 -10 -8 -7 -6 -3 -6 -10 -12 -8 -4 -3 -3 -2 -1 -2 -2 -2 -2 -3 -5 -6 -6 -6 -7 -7 -3
-12 -13 -15 -21 -19 -13 -8 -7 -7 -2 -0 -3 -10 -5 -7 -7 -3 -5 -11 -8 -7 -7 -6 -5 -5 -6 -8 -8 -7 -5 -3 -2 -1 -2 -3 -3 -3 -7 -8 -7 -7 -6 -5 -3 -3
-14 -14 -17 -19 -13 -13 -8 -11 -8 -1 -0 -4 -3 -8 -9 -8 -5 -13 -13 -11 -7 -8 -7 -7 -9 -6 -4 -5 -9 -7 -8 -5 -4 -3 -3 -4 -3 -6 -6 -6 -3 -3 -4 -4 -4
-15 -17 -16 -12 -11 -9 -9 -12 -8 -1 -6 -10 -9 -10 -12 -8 -10 -9 -11 -11 -11 -11 -9 -8 -6 -7 -5 -5 -10 -9 -10 -8 -8 -5 -6 -6 -5 -6 -5 -2 -5 -4 -1 2 0
-15 -15 -12 -10 -8 -6 -7 -11 -7 -3 -4 -9 -11 -8 -8 -8 -5 -4 -8 -12 -12 -13 -13 -14 -9 -5 -8 -7 -8 -9 -9 -8 -7 -5 -2 -5 -5 -4 -5 -6 -1 2 2 5 3
-15 -13 -11 -9 -6 -5 -6 -6 -6 -4 -11 -7 -4 -5 -6 -5 -3 -1 -1 -9 -8 -8 -10 -15 -11 -11 -9 -7 -4 -6 -4 1 2 0 -0 -5 -3 -5 -4 -4 2 3 4 4 5
-14 -12 -9 -4 -5 -6 -6 -6 -6 -10 -8 -5 -3 -5 -4 -4 -1 -1 2 0 -6 -6 -7 -9 -9 -10 -10 -7 -5 -3 -2 2 2 5 2 -0 -0 -0 -4 0 2 4 5 5 5
-12 -10 -3 -2 -6 -6 -5 -7 -5 -6 -5 -3 -4 -5 -3 -5 -3 2 -1 4 3 2 1 -3 -7 -9 -10 -9 -8 -5 -3 -4 -3 1 2 1 1 -0 1 3 3 4 5 5 6
-7 -9 -2 -2 -5 -4 -4 -4 -5 -4 -6 -4 -2 -4 -4 -4 -0 1 2 2 3 2 3 1 2 -1 -4 -10 -9 -6 -6 -2 -1 1 2 1 3 2 4 4 5 5 5 5 5
-6 -7 -2 -4 -3 -3 -4 -4 -4 -6 -6 -2 -3 -3 -3 -3 1 1 1 2 -1 1 3 2 1 1 1 -2 -6 -7 -4 -4 -2 0 1 1 1 -0 -1 4 6 6 5 5 4
-6 -8 -2 -4 -4 -3 -3 -3 -3 -3 -4 -4 -3 -3 -2 0 1 1 2 -1 -4 -1 4 2 2 2 1 3 2 -2 -5 -4 0 1 2 1 0 4 5 5 5 5 7 6 3
-5 -5 -4 -2 -4 -5 -3 -2 -3 -3 -4 -3 -2 -3 -3 -1 0 -3 -1 -5 -5 -1 3 3 2 4 3 3 2 1 -1 2 -4 1 2 4 2 4 5 5 5 6 6 6 4
-4 -6 -6 -2 -2 -3 -4 -3 -3 -5 -2 -3 -1 -2 -1 -2 -5 -4 -3 -4 -3 -2 -0 1 4 3 4 3 2 5 -0 -2 -0 -0 -1 2 6 6 6 6 5 6 6 6 6
-5 -7 -4 -5 -5 -3 -4 -3 -3 -3 -3 -1 -2 -2 -1 0 -2 -2 -2 -2 -3 -2 -0 1 4 3 0 0 1 3 5 1 4 2 1 3 1 0 6 6 5 5 6 6 6
-4 -4 -3 -4 -4 -4 -6 -6 -4 -5 -4 -2 -2 -3 -2 -0 -1 -1 -2 -2 -1 -1 -2 0 2 3 1 -3 -4 3 3 4 1 3 4 3 4 4 4 6 6 7 6 6 6
-4 -4 -4 -5 -4 -5 -5 -4 -5 -4 -5 -4 -3 -2 -2 -3 -3 -2 -2 -2 -2 -1 -1 -1 3 2 1 1 0 3 2 2 1 1 2 2 4 4 5 5 6 6 5 6 6

GFSSW_850_dewp_111.txt.gz
Dewpoint
-25 -26 -28 -29 -31 -31 -32 -32 -32 -32 -32 -33 -33 -33 -33 -32 -31 -27 -26 -20 -18 -24 -23 -20 -7 -5 -5 -3 -4 -4 -4 -4 -7 -4 -8 -6 -6 -7 -6 -7 -7 -7 -8 -7 -7
-26 -28 -30 -31 -31 -31 -31 -32 -32 -32 -32 -33 -33 -33 -33 -33 -34 -30 -8 -9 -8 -7 -22 -15 -8 -5 -3 -1 -3 -3 -4 -6 -6 -6 -7 -6 -5 -6 -6 -6 -6 -6 -7 -6 -6
-26 -29 -29 -31 -31 -31 -32 -32 -32 -32 -32 -33 -33 -33 -33 -33 -33 -22 -8 -11 -10 -12 -14 -12 -6 -5 -3 -1 -1 -3 -4 -5 -5 -6 -6 -6 -6 -5 -6 -6 -6 -6 -6 -6 -6
-21 -26 -30 -32 -32 -33 -33 -34 -34 -34 -34 -33 -33 -33 -33 -32 -28 -17 -11 -9 -8 -13 -13 -6 -2 -0 -0 -2 -2 -2 -3 -4 -6 -5 -5 -5 -5 -5 -5 -6 -8 -6 -5 -5 -6
-20 -23 -26 -30 -31 -32 -33 -33 -33 -33 -34 -34 -33 -32 -26 -28 -33 -33 -32 -28 -26 -21 -18 -7 -5 -3 -4 -4 -3 -2 -3 -4 -4 -4 -4 -4 -4 -4 -5 -6 -6 -4 -5 -5 -5
-21 -24 -28 -26 -26 -31 -33 -33 -33 -34 -34 -33 -33 -30 -14 -18 -32 -32 -30 -28 -17 -11 -4 -4 -5 -5 -5 -6 -5 -6 -4 -5 -4 -5 -4 -4 -4 -4 -5 -6 -5 -4 -5 -5 -5
-23 -27 -25 -23 -27 -30 -34 -34 -34 -34 -33 -32 -31 -17 -11 -30 -32 -31 -31 -22 -15 -25 -11 -10 -9 -5 -3 -3 -3 -3 -3 -3 -3 -4 -3 -3 -2 -2 -3 -3 -4 -4 -5 -5 -5
-21 -24 -21 -21 -26 -31 -33 -34 -33 -32 -28 -24 -13 -12 -16 -23 -23 -13 -2 -5 -6 -6 -12 -15 -18 -14 -2 -4 -8 -5 -4 -1 -3 -2 -3 -3 -1 -3 -4 -4 -4 -5 -5 -5 -5
-21 -23 -21 -21 -26 -32 -33 -32 -31 -25 -18 -13 -7 -6 -11 -19 -17 -13 -7 -8 -5 -6 -7 -8 -13 -7 -7 -6 -6 -5 -5 -2 -2 -3 -3 -2 -2 -4 -4 -4 -4 -4 -4 -5 -5
-24 -22 -22 -21 -25 -31 -32 -30 -26 -19 -11 -12 -5 -4 -12 -13 -15 -13 -12 -12 -9 -5 -8 -10 -8 -8 -7 -6 -5 -6 -4 -2 -3 -3 -2 -2 -2 -4 -4 -4 -4 -4 -4 -5 -5
-20 -20 -20 -23 -25 -24 -29 -31 -22 -13 -13 -5 -10 -5 -9 -12 -8 -10 -14 -9 -7 -10 -6 -9 -8 -8 -10 -7 -8 -8 -4 -3 -3 -3 -2 -1 -2 -3 -3 -4 -4 -4 -4 -5 -9
-17 -19 -22 -25 -25 -20 -24 -13 -3 -4 -1 -10 -10 -4 -8 -6 -2 -11 -10 -8 -12 -15 -7 -5 -5 -8 -11 -8 -7 -7 -7 -7 -7 -5 -4 -4 -3 -4 -5 -4 -5 -5 -6 -7 -8
-19 -20 -23 -25 -25 -24 -17 -9 -7 -2 -1 -6 -8 -7 -9 -7 -5 -7 -9 -8 -8 -11 -11 -5 -6 -7 -8 -10 -8 -8 -6 -7 -7 -6 -3 -2 -4 -9 -11 -7 -7 -7 -7 -6 -4
-18 -20 -22 -25 -20 -16 -14 -14 -8 -3 -6 -11 -8 -8 -10 -11 -5 -10 -10 -9 -8 -7 -12 -10 -10 -7 -5 -6 -9 -7 -9 -8 -7 -4 -5 -6 -8 -8 -9 -9 -5 -5 -1 2 4
-18 -19 -21 -20 -17 -12 -11 -15 -11 -2 -23 -13 -10 -9 -9 -10 -8 -8 -5 -8 -8 -9 -8 -10 -7 -7 -6 -5 -7 -6 -8 -7 -6 -5 -5 -7 -6 -9 -6 -5 -5 3 3 5 6
-19 -18 -18 -18 -14 -12 -13 -14 -9 -12 -17 -13 -9 -10 -7 -8 -6 -5 -3 -4 -9 -10 -10 -11 -13 -9 -10 -9 -8 -9 -8 -8 -7 -6 -5 -8 -8 -7 -7 -7 3 3 4 5 5
-19 -16 -15 -14 -10 -10 -11 -9 -12 -14 -13 -11 -8 -7 -6 -5 -5 -6 -4 -2 -2 -8 -8 -12 -13 -14 -7 -8 -7 -8 -7 -4 -2 -1 -2 -5 -6 -8 -5 -1 3 4 5 5 5
-17 -13 -12 -5 -8 -9 -8 -7 -10 -11 -10 -10 -6 -5 -5 -5 -8 -7 -2 -1 -1 -4 -6 -3 -5 -15 -16 -8 -6 -6 -5 -3 -4 -1 -3 -4 -3 -5 -5 -3 4 5 5 5 5
-13 -11 -4 -4 -8 -7 -8 -6 -10 -7 -6 -5 -5 -6 -6 -8 -5 -3 0 2 2 2 1 1 -8 -12 -14 -11 -4 -2 -3 -5 -2 1 1 -0 -1 -1 1 4 4 5 5 5 7
-11 -5 -3 -3 -6 -5 -5 -5 -7 -6 -7 -5 -2 -5 -4 -4 -2 -0 2 0 1 -0 1 3 3 -3 -6 -14 -10 -4 -4 -1 -1 -0 1 -1 1 -2 4 6 5 6 5 5 7
-9 -6 -3 -4 -4 -4 -4 -5 -5 -6 -5 -4 -2 -3 -4 -2 -1 0 1 -1 -3 -4 0 3 2 -0 -1 -8 -12 -10 -3 -3 -3 -1 -2 -2 -2 0 1 4 6 6 5 5 6
-7 -6 -3 -2 -5 -4 -4 -4 -3 -3 -4 -4 -3 -2 -2 -2 0 0 1 -1 -4 -4 1 3 4 3 -2 3 3 -8 -8 -4 -1 -0 -1 -2 -2 4 5 5 5 6 5 4 4
-6 -5 -4 -4 -4 -4 -4 -3 -2 -3 -4 -2 -2 -2 -2 -1 -1 -2 -4 -5 -4 -3 1 2 4 4 1 2 1 3 -0 -2 -5 -0 -2 1 -2 5 5 5 6 6 5 5 4
-6 -6 -5 -2 -2 -5 -3 -3 -4 -7 -3 -3 -2 -2 -2 -2 -3 -2 -3 -4 -4 -4 -1 2 4 4 3 2 1 4 4 4 1 -3 -4 -1 5 6 5 5 6 6 6 7 5
-5 -6 -4 -5 -3 -4 -4 -5 -5 -4 -6 -3 -3 -4 -2 -1 -2 -2 -3 -2 -4 -3 -3 1 3 3 2 -1 0 2 3 4 3 1 -3 -5 -1 5 5 5 5 6 6 6 6
-6 -5 -4 -6 -4 -4 -4 -6 -5 -6 -4 -4 -2 -4 -3 -2 -2 -1 -2 -2 -2 -3 -3 -3 2 2 2 -0 -4 -1 3 3 0 4 3 3 5 5 5 6 6 6 6 6 6
-5 -4 -5 -6 -4 -4 -5 -6 -5 -6 -6 -5 -5 -5 -2 -4 -3 -4 -3 -3 -2 -1 -1 -1 0 0 -1 -1 -0 -0 3 3 1 1 2 2 4 6 7 7 6 6 6 6 5

GFSSW_850_dewp_117.txt.gz
Dewpoint
-31 -31 -32 -32 -33 -33 -34 -34 -34 -34 -34 -34 -35 -35 -34 -34 -34 -10 -11 -12 -10 -9 -10 -7 -4 -5 -3 -3 -5 -5 -4 -4 -7 -8 -10 -13 -13 -12 -13 -12 -8 -8 -6 -3 0
-31 -31 -32 -32 -32 -33 -33 -34 -34 -34 -34 -35 -35 -35 -35 -35 -32 -7 -10 -10 -10 -10 -3 -4 -6 -5 -4 -4 -4 -5 -3 -4 -8 -10 -11 -12 -13 -12 -11 -10 -10 -8 -6 -5 -4
-30 -30 -32 -32 -33 -33 -33 -34 -34 -34 -34 -34 -34 -34 -34 -34 -6 -5 -9 -8 -8 -10 -3 -5 -6 -7 -5 -5 -4 -4 -2 -5 -7 -8 -10 -11 -11 -13 -13 -10 -11 -9 -7 -6 -6
-29 -31 -32 -33 -33 -33 -33 -33 -33 -33 -33 -33 -34 -34 -33 -30 -21 -5 -31 -31 -30 -21 -6 -10 -6 -5 -6 -5 -6 -3 -4 -4 -5 -6 -7 -8 -8 -9 -11 -12 -13 -11 -9 -6 -6
-31 -32 -32 -32 -32 -32 -32 -32 -32 -32 -32 -32 -33 -32 -30 -11 -18 -15 -30 -19 -19 -15 -8 -8 -11 -9 -5 -6 -6 -5 -6 -5 -5 -5 -6 -6 -7 -6 -7 -9 -10 -11 -11 -8 -7
-30 -31 -31 -31 -31 -31 -31 -31 -31 -32 -32 -32 -31 -31 -4 -13 -15 -12 -8 -7 -10 -9 -15 -20 -9 -11 -11 -10 -7 -6 -6 -5 -5 -4 -5 -5 -5 -6 -6 -6 -7 -8 -9 -9 -8
-30 -30 -30 -30 -30 -30 -31 -31 -31 -32 -31 -28 -27 -23 -2 -8 -8 -3 -5 -7 -4 -7 -4 -5 -15 -10 -9 -9 -8 -8 -6 -6 -6 -6 -5 -5 -4 -4 -5 -5 -6 -7 -7 -7 -9
-30 -30 -30 -30 -30 -30 -30 -31 -32 -32 -27 -27 -23 -1 -8 -11 -9 -10 -10 -11 -12 -12 -8 -4 -5 -12 -11 -11 -12 -10 -6 -3 -6 -6 -6 -5 -2 -5 -5 -5 -5 -5 -5 -6 -6
-29 -29 -29 -29 -30 -30 -30 -32 -30 -27 -26 -21 0 -4 -9 -7 -10 -9 -11 -10 -10 -11 -12 -6 -6 -7 -12 -11 -11 -13 -12 -10 -8 -10 -7 -4 -3 -6 -6 -6 -5 -4 -4 -4 -4
-28 -28 -29 -29 -30 -30 -31 -27 -17 -20 -12 -5 -2 -11 -9 -9 -9 -8 -11 -13 -11 -9 -11 -11 -8 -9 -12 -13 -11 -14 -12 -12 -10 -11 -11 -6 -5 -6 -6 -6 -4 -5 -5 -5 -4
-28 -28 -28 -29 -29 -30 -29 -9 -12 -4 -12 -11 -9 -8 -9 -12 -9 -15 -12 -16 -11 -13 -11 -13 -13 -10 -16 -16 -16 -17 -15 -14 -11 -13 -11 -9 -9 -9 -8 -7 -6 -5 -5 -4 -4
-28 -28 -28 -29 -29 -30 -12 -9 -9 -17 -8 -9 -7 -6 -8 -12 -16 -19 -15 -14 -14 -11 -13 -11 -11 -16 -19 -16 -18 -20 -17 -13 -16 -17 -15 -13 -10 -7 -8 -10 -9 -7 -6 -5 -4
-27 -27 -28 -29 -27 -11 -6 -8 -7 -3 -5 -13 -10 -10 -13 -14 -15 -14 -13 -12 -12 -10 -11 -11 -13 -15 -15 -16 -16 -16 -17 -16 -15 -17 -15 -13 -12 -13 -13 -12 -13 -13 -11 -8 -7
-27 -27 -28 -25 -8 -9 -6 -5 -4 -2 -4 -14 -14 -11 -15 -14 -15 -14 -10 -12 -11 -9 -11 -10 -12 -13 -14 -14 -16 -13 -17 -16 -17 -15 -12 -14 -9 -13 -14 -13 -12 -12 -12 -11 -11
-27 -27 -28 -28 -14 -9 -9 -6 -3 1 -7 -16 -18 -16 -15 -15 -14 -14 -13 -14 -9 -7 -6 -6 -9 -11 -11 -13 -15 -17 -17 -13 -14 -13 -11 -13 -14 -14 -14 -12 -11 -11 -12 -10 -6
-26 -26 -27 -7 -4 -12 -13 -11 -2 -0 -11 -16 -18 -15 -14 -15 -15 -14 -14 -10 -7 -7 -9 -9 -10 -8 -10 -12 -12 -13 -14 -13 -10 -10 -6 -10 -12 -14 -14 -12 -10 -8 -7 -3 1
-24 -25 -16 -9 -3 -21 -16 -4 -6 -13 -19 -15 -13 -14 -12 -13 -13 -13 -11 -11 -6 -4 -5 -7 -8 -10 -10 -10 -11 -11 -10 -9 -5 -4 -5 -12 -12 -12 -14 -14 -12 -4 0 2 3
-21 -21 -18 -8 -12 -17 -3 -6 -4 -14 -15 -13 -12 -12 -13 -14 -12 -11 -10 -9 -9 -4 -2 -4 -2 -8 -4 -4 -9 -10 -10 -7 -5 -5 -8 -15 -12 -14 -15 -15 -8 -2 1 3 4
-16 -3 -2 -11 -16 -5 -5 -1 -12 -12 -9 -8 -10 -12 -13 -12 -11 -10 -8 -5 -7 -6 2 0 -2 -5 -6 -7 -6 -11 -9 -13 -8 -10 -9 -13 -14 -13 -14 -12 -2 1 2 4 5
-3 -3 -2 -12 -14 -1 -5 -9 -11 -11 -10 -9 -7 -9 -8 -10 -8 -7 -6 -5 -6 -9 -7 -0 3 -4 -5 -1 -4 -11 -14 -9 -8 -5 -6 -12 -11 -10 -10 -8 -2 -0 2 5 7
-3 -4 -1 -10 -5 -5 -1 -9 -10 -9 -8 -7 -8 -7 -8 -7 -6 -6 -4 -4 -8 -9 -8 -2 3 -2 -1 1 -5 -11 -11 -13 -11 -9 -7 -9 -11 -13 -11 -9 -5 -1 3 5 6
-5 -2 -2 -3 -4 -8 -8 -9 -8 -8 -7 -7 -6 -6 -6 -6 -6 -6 -4 -8 -10 -8 -5 1 2 1 -1 -1 0 -1 -12 -13 -9 -8 -11 -11 -10 -6 -9 -5 -3 3 3 5 6
-6 -5 -2 -2 0 -7 -7 -9 -9 -8 -9 -8 -7 -8 -6 -6 -6 -7 -8 -11 -9 -8 -5 -3 -0 2 -3 1 0 1 -6 -12 -11 -11 -10 -6 -9 -3 -5 -0 3 4 3 4 4
-6 -2 -5 -4 -5 -4 -4 -7 -8 -9 -9 -9 -8 -8 -7 -7 -9 -7 -8 -10 -9 -8 -5 -4 -1 2 3 4 0 4 3 -6 -7 -3 -9 -9 -11 4 -3 -3 4 3 3 3 4
-4 -3 -5 -1 -2 -7 -7 -8 -7 -8 -9 -8 -9 -8 -7 -6 -8 -8 -9 -8 -9 -7 -7 -5 -0 -1 -4 -6 -3 -0 4 -1 -0 0 -2 -6 -10 -4 -1 -0 3 3 3 3 5
-3 -7 -6 -7 -6 -6 -5 -8 -9 -10 -8 -9 -9 -10 -9 -7 -8 -7 -7 -6 -6 -7 -5 -4 -1 -4 -4 -3 -3 2 4 3 -2 -4 -5 -6 -5 -8 -1 1 1 3 4 5 4
-5 -5 -7 -8 -7 -6 -7 -8 -9 -11 -10 -10 -10 -8 -8 -9 -9 -7 -7 -7 -6 -4 -3 -1 -1 -1 -3 -5 0 5 3 2 3 3 -3 -1 -4 1 -4 4 3 4 5 5 4

GFSSW_850_dewp_123.txt.gz
Dewpoint
-31 -32 -32 -32 -32 -33 -33 -34 -34 -34 -34 -34 -34 -34 -34 -33 -22 -6 -4 -12 -11 -12 -5 -3 -6 -7 -6 -5 -2 -2 -1 -0 -2 -3 -5 -7 -6 -7 -11 -13 -14 -13 -8 3 2
-31 -31 -31 -32 -32 -33 -33 -34 -34 -33 -33 -33 -34 -34 -34 -34 -6 -6 -10 -16 -18 -23 -28 -7 -7 -7 -6 -6 -6 -4 -1 -1 -3 -4 -4 -5 -5 -4 -5 -12 -12 -13 1 2 3
-30 -31 -31 -32 -33 -33 -34 -33 -33 -33 -33 -33 -34 -34 -34 -32 -3 -3 -12 -27 -33 -25 -7 -5 -8 -11 -9 -7 -7 -4 -2 -3 -3 -4 -4 -4 -4 -4 -5 -10 -12 -12 -10 -1 -1
-30 -30 -32 -33 -33 -33 -33 -32 -32 -33 -33 -33 -33 -33 -34 -10 -9 -14 -10 -9 -11 -14 -19 -19 -19 -16 -11 -8 -8 -6 -7 -5 -5 -4 -4 -4 -4 -4 -4 -5 -6 -9 -9 -8 -4
-29 -30 -32 -32 -32 -32 -32 -32 -32 -33 -33 -33 -33 -33 -31 -4 -14 -5 -6 -8 -6 -6 -8 -8 -9 -16 -15 -13 -13 -11 -10 -8 -8 -8 -7 -7 -6 -5 -5 -5 -5 -6 -6 -6 -9
-29 -31 -31 -31 -31 -31 -32 -32 -32 -32 -33 -33 -32 -32 -15 -5 -9 -9 -9 -13 -9 -6 -8 -10 -11 -6 -6 -17 -13 -12 -11 -12 -12 -11 -11 -8 -6 -6 -6 -5 -5 -5 -6 -6 -6
-30 -30 -30 -30 -31 -31 -31 -32 -33 -32 -31 -31 -32 -28 -5 -9 -9 -12 -12 -12 -12 -12 -13 -13 -14 -12 -6 -6 -12 -12 -12 -12 -12 -9 -10 -10 -8 -6 -6 -6 -5 -4 -5 -5 -5
-29 -30 -30 -30 -31 -31 -32 -31 -30 -26 -30 -25 -17 -5 -5 -7 -10 -12 -13 -12 -15 -16 -13 -12 -12 -13 -8 -7 -8 -10 -13 -10 -14 -13 -14 -11 -6 -8 -7 -7 -6 -6 -5 -5 -5
-29 -29 -29 -30 -31 -31 -32 -25 -18 -22 -16 -11 -5 -6 -6 -10 -13 -15 -13 -14 -16 -15 -13 -14 -12 -12 -8 -7 -8 -11 -10 -12 -13 -15 -16 -15 -14 -16 -9 -7 -6 -6 -5 -5 -5
-28 -28 -29 -30 -31 -32 -27 -15 -13 -10 -11 -6 -6 -3 -8 -10 -16 -17 -15 -16 -15 -14 -15 -14 -10 -6 -7 -8 -6 -9 -11 -12 -13 -16 -15 -15 -14 -15 -12 -11 -7 -6 -6 -6 -5
-28 -28 -28 -30 -31 -28 -19 -13 -10 -3 -9 -12 -11 -11 -11 -11 -16 -16 -15 -13 -14 -13 -11 -13 -11 -9 -11 -11 -11 -11 -11 -11 -13 -15 -15 -16 -16 -18 -16 -12 -12 -9 -7 -6 -5
-27 -27 -28 -30 -27 -18 -15 -10 -10 -7 -5 -10 -9 -8 -11 -15 -15 -15 -16 -12 -13 -11 -12 -11 -9 -10 -10 -10 -9 -9 -9 -10 -12 -14 -15 -16 -16 -18 -17 -16 -14 -14 -13 -10 -9
-26 -27 -28 -30 -13 -8 -8 -12 -12 -12 -2 -9 -12 -13 -17 -16 -16 -15 -14 -11 -13 -12 -11 -7 -7 -10 -10 -10 -8 -7 -7 -8 -8 -11 -13 -14 -14 -17 -17 -15 -15 -16 -16 -15 -10
-24 -27 -29 -15 -9 -4 -3 -7 -16 -10 2 -10 -9 -11 -15 -17 -15 -16 -13 -15 -14 -12 -10 -8 -9 -11 -10 -10 -11 -9 -9 -7 -7 -5 -7 -12 -11 -15 -16 -14 -15 -16 -16 -15 -14
-22 -27 -29 -12 -6 -4 -4 -12 -9 2 3 -10 -17 -17 -17 -17 -16 -16 -15 -15 -12 -12 -10 -7 -8 -9 -9 -10 -9 -5 -6 -6 -5 -3 -5 -9 -10 -15 -16 -15 -16 -16 -16 -16 -14
-25 -27 -20 -9 -4 -5 -17 -9 -0 3 2 -13 -17 -15 -16 -16 -15 -15 -15 -15 -14 -8 -7 -6 -9 -11 -10 -10 -9 -8 -3 -3 -4 -3 -2 -7 -7 -12 -14 -16 -17 -17 -17 -15 -16
-22 -24 -10 -3 -0 -2 -11 -0 1 2 -13 -14 -14 -15 -14 -13 -15 -14 -12 -10 -8 -2 -3 -6 -7 -8 -10 -8 -8 -6 1 3 1 -1 -2 -8 -7 -10 -12 -15 -17 -15 -14 -1 -7
-22 -23 -10 -5 -3 -15 -0 1 2 -10 -12 -12 -14 -15 -12 -14 -13 -12 -10 -8 -8 -6 -2 -1 -0 -7 -9 -8 -5 -4 -2 2 5 0 -3 -9 -6 -10 -13 -14 -16 -15 1 3 6
-21 -10 -2 -5 -18 -7 1 1 -0 -9 -9 -11 -12 -11 -12 -11 -11 -8 -8 -4 -7 -6 -1 -1 -3 -9 -9 -8 -3 3 4 1 5 1 0 -5 -7 -10 -16 -14 -14 -13 2 5 9
-3 -1 -1 -2 -21 0 1 1 -8 -12 -13 -12 -9 -11 -10 -9 -8 -6 -7 -7 -6 -8 -6 -3 -2 -8 -6 -7 -4 -1 2 5 1 1 -1 -3 -5 -7 -9 -9 -13 -5 4 9 9
-2 -1 -0 -4 -17 1 1 -2 -9 -11 -12 -11 -9 -8 -8 -7 -8 -6 -5 -6 -8 -7 -7 -5 -1 -3 -5 -4 -4 -0 2 4 5 0 -2 -2 -5 -10 -7 -8 -2 -0 8 10 9
-1 0 -1 -16 0 -0 0 -4 -11 -9 -9 -9 -8 -7 -7 -6 -6 -6 -5 -7 -8 -7 -5 -4 -2 -1 -4 -7 -6 -3 -2 2 5 5 2 -4 -6 -13 -11 2 4 5 9 9 9
-2 -0 -3 -6 1 -0 -4 -8 -11 -11 -9 -8 -7 -7 -9 -8 -5 -6 -7 -10 -13 -8 -5 -5 -3 0 -3 -5 -3 -2 -3 -5 2 3 3 1 -4 -10 0 6 8 8 9 7 6
-2 0 -3 -10 -5 -2 -1 -5 -7 -11 -10 -10 -10 -10 -8 -6 -7 -5 -6 -9 -11 -9 -8 -5 -1 2 1 -1 -2 -0 -2 -4 0 6 1 -2 -0 1 4 6 7 6 5 8 6
-1 -1 -3 0 -1 -2 -4 -6 -6 -6 -10 -11 -9 -8 -7 -6 -6 -6 -7 -8 -9 -9 -8 -6 -2 -3 -2 -2 -3 -3 -2 4 5 4 3 2 2 3 5 7 7 6 5 7 7
-4 -3 -5 -6 -4 -2 -3 -5 -5 -8 -8 -8 -8 -8 -8 -8 -7 -6 -7 -7 -6 -7 -6 -7 -2 -2 -1 -2 -2 -2 3 4 5 5 4 4 4 4 5 4 4 3 3 4 5
-3 -5 -4 -4 -6 -3 -3 -6 -8 -9 -10 -11 -9 -9 -8 -7 -9 -8 -8 -8 -7 -6 -5 -5 -3 -2 1 -1 -1 4 4 4 4 4 4 5 6 5 5 4 3 4 3 4 3

GFSSW_850_dewp_129.txt.gz
Dewpoint
-24 -26 -30 -32 -32 -32 -33 -33 -34 -34 -33 -33 -33 -34 -34 -33 -14 -6 -16 -23 -32 -24 -23 -14 -8 -8 -8 -5 -3 -3 -1 1 0 -1 -2 -3 -3 -3 -3 -3 -4 -4 -4 -5 2
-24 -27 -31 -32 -32 -32 -33 -33 -33 -33 -33 -33 -33 -33 -33 -33 -6 -9 -12 -14 -27 -30 -11 -14 -13 -10 -9 -7 -6 -5 -2 -1 -2 -3 -2 -3 -3 -4 -3 -4 -4 -4 -5 -5 -1
-24 -27 -31 -32 -32 -32 -33 -33 -33 -33 -33 -33 -33 -33 -33 -32 -4 -7 -9 -11 -11 -16 -19 -14 -13 -14 -10 -11 -7 -5 -3 -4 -5 -6 -5 -3 -3 -4 -3 -4 -5 -6 -6 -6 -5
-23 -27 -31 -31 -31 -32 -33 -33 -33 -33 -33 -33 -33 -33 -33 -22 -3 -8 -7 -9 -9 -7 -9 -9 -8 -10 -17 -16 -13 -11 -12 -11 -9 -10 -13 -10 -10 -9 -10 -8 -8 -9 -8 -6 -6
-23 -27 -30 -31 -31 -32 -32 -32 -32 -32 -33 -33 -33 -33 -32 -7 -13 -10 -8 -8 -12 -7 -8 -10 -10 -10 -7 -6 -8 -14 -12 -10 -10 -13 -15 -15 -12 -11 -11 -13 -11 -8 -7 -7 -6
-21 -27 -30 -30 -31 -32 -32 -32 -32 -32 -33 -33 -32 -32 -29 -2 -12 -10 -10 -16 -15 -15 -14 -14 -13 -13 -12 -6 -8 -9 -8 -9 -12 -14 -17 -14 -12 -12 -16 -15 -12 -10 -8 -8 -7
-20 -26 -29 -30 -31 -31 -31 -32 -32 -33 -32 -29 -28 -28 -20 -16 -11 -10 -11 -18 -16 -16 -16 -13 -12 -12 -13 -11 -8 -8 -7 -10 -14 -17 -15 -15 -14 -15 -18 -17 -17 -17 -14 -12 -9
-21 -25 -30 -30 -31 -31 -31 -32 -32 -28 -24 -24 -17 -11 -6 -8 -10 -14 -14 -16 -15 -15 -15 -14 -12 -12 -12 -10 -8 -9 -11 -10 -13 -13 -15 -14 -12 -15 -15 -15 -15 -16 -16 -16 -14
-21 -26 -29 -29 -30 -30 -31 -29 -27 -25 -20 -19 -11 -5 -4 -9 -13 -17 -16 -15 -16 -15 -13 -13 -11 -12 -8 -8 -8 -10 -8 -8 -9 -12 -11 -12 -10 -13 -12 -14 -14 -16 -16 -17 -16
-19 -23 -28 -29 -30 -30 -31 -32 -32 -23 -17 -13 -4 -5 -6 -9 -11 -16 -15 -14 -15 -15 -14 -12 -11 -10 -10 -8 -5 -7 -7 -8 -8 -10 -11 -9 -10 -11 -11 -12 -12 -12 -13 -14 -17
-8 -24 -25 -16 -14 -18 -30 -30 -19 -13 -10 -9 -8 -8 -11 -11 -15 -15 -15 -13 -16 -14 -12 -12 -10 -8 -9 -10 -9 -9 -9 -9 -11 -12 -10 -8 -8 -9 -10 -10 -11 -12 -13 -13 -15
-13 -14 -13 -2 -13 -24 -27 -16 -11 -11 -11 -10 -14 -11 -11 -15 -16 -15 -14 -14 -14 -13 -13 -11 -8 -9 -11 -10 -9 -9 -8 -9 -10 -9 -7 -6 -6 -8 -9 -10 -11 -11 -12 -14 -15
-8 -3 -1 -9 -19 -23 -15 -13 -15 -19 -10 -6 -10 -9 -14 -14 -16 -15 -15 -13 -14 -13 -13 -10 -8 -9 -9 -9 -9 -10 -8 -8 -5 -7 -9 -8 -7 -9 -10 -11 -10 -10 -11 -13 -12
2 1 -1 -16 -19 -14 -7 -8 -21 -21 -4 -8 -9 -11 -16 -16 -16 -16 -15 -15 -14 -13 -10 -8 -8 -8 -8 -9 -9 -6 -8 -7 -7 -6 -3 -6 -1 -4 -7 -8 -10 -11 -11 -12 -12
3 2 -10 -18 -14 -6 -7 -6 -16 -10 -6 -8 -9 -12 -16 -16 -15 -15 -14 -14 -12 -11 -10 -8 -7 -7 -7 -8 -9 -8 -8 -7 -6 -4 -4 -3 -1 -4 -7 -7 -9 -10 -11 -12 -14
2 -4 -17 -20 -6 -5 -5 -17 -8 0 -4 -8 -15 -14 -15 -16 -15 -14 -13 -12 -9 -7 -8 -8 -9 -9 -8 -9 -9 -8 -6 -5 -3 -2 1 -2 -1 -3 -5 -7 -8 -10 -11 -12 -14
-1 -14 -17 -18 -8 -5 -10 -7 1 1 -11 -13 -13 -12 -14 -13 -13 -12 -9 -7 -7 -8 -6 -6 -7 -8 -9 -8 -9 -7 -5 1 1 -0 -1 -5 0 -2 -5 -7 -10 -9 -11 -12 -13
-7 -14 -16 -11 -4 -6 -3 1 2 -8 -9 -13 -13 -13 -12 -12 -10 -9 -9 -7 -8 -6 -5 -3 -4 -7 -9 -8 -7 -5 1 2 3 1 -0 -1 2 -4 -7 -2 0 -2 -10 -1 9
-13 -16 -13 -4 -3 -5 -1 0 -6 -5 -9 -11 -13 -11 -10 -9 -8 -8 -8 -5 -9 -7 -4 -3 -3 -8 -9 -9 -8 -3 0 -3 3 1 3 -1 -3 -6 -4 4 5 5 6 8 8
-16 -13 -4 -2 -2 -6 0 -1 -2 -10 -12 -10 -9 -9 -7 -8 -7 -7 -8 -7 -8 -7 -7 -6 -3 -8 -7 -7 -5 -3 -5 0 3 3 2 1 -2 -2 -1 4 3 5 5 4 7
-14 -4 -2 -4 -8 1 0 -1 -8 -10 -11 -9 -7 -6 -7 -7 -7 -7 -6 -8 -8 -7 -7 -7 -4 -5 -7 -5 -6 -4 -2 -2 1 2 4 3 -2 -4 3 4 5 5 5 7 6
-2 0 -0 -6 1 -0 0 -0 -10 -9 -9 -8 -7 -8 -6 -6 -7 -6 -5 -9 -9 -8 -6 -6 -4 -2 -6 -7 -7 -6 -5 -3 3 2 1 3 1 2 4 4 5 4 5 6 6
-0 0 -1 -2 -0 1 -1 -8 -8 -7 -8 -7 -6 -6 -7 -7 -6 -7 -7 -8 -10 -9 -7 -7 -5 -2 -6 -7 -9 -6 -7 -4 3 4 4 5 1 -1 2 3 5 4 4 5 4
-2 -1 -3 -1 -1 -1 -2 -6 -7 -9 -9 -9 -8 -9 -8 -8 -8 -6 -6 -7 -9 -9 -7 -5 -3 -6 -4 -5 -4 -3 -5 -2 3 3 3 2 2 4 1 3 4 4 3 2 2
-2 -2 -7 -3 -2 -2 -3 -5 -7 -6 -10 -11 -10 -8 -8 -7 -7 -6 -8 -7 -9 -8 -8 -7 -5 -2 -3 -3 -6 -6 -3 1 2 3 3 2 2 3 1 3 4 4 3 3 2
-2 -2 -2 -3 -4 -3 -3 -4 -5 -6 -8 -8 -6 -7 -8 -7 -8 -7 -7 -7 -7 -8 -8 -8 -8 -5 -5 -5 -5 -3 1 -0 2 2 -1 -1 -1 0 2 2 4 4 3 2 1
-4 -4 -7 -4 -3 -3 -3 -5 -6 -8 -7 -9 -8 -7 -6 -7 -9 -10 -9 -9 -9 -7 -7 -6 -4 -3 -2 -4 -3 3 1 -1 -0 0 1 1 1 1 1 1 -0 2 1 1 -1

GFSSW_850_dewp_132.txt.gz
Dewpoint
-15 -20 -24 -27 -31 -32 -32 -33 -33 -34 -34 -33 -34 -34 -34 -33 -24 -7 -19 -18 -30 -27 -17 -11 -10 -8 -8 -4 -2 -2 -0 2 1 0 -1 -3 -3 -4 -5 -4 -4 -5 -5 -6 -6
-14 -19 -24 -27 -31 -32 -32 -33 -33 -33 -33 -33 -33 -34 -34 -33 -17 -8 -11 -12 -13 -20 -20 -16 -12 -10 -8 -7 -5 -5 -1 0 -2 -3 -2 -3 -5 -6 -5 -5 -5 -7 -9 -7 -7
-10 -17 -23 -27 -30 -32 -32 -33 -33 -33 -33 -33 -33 -34 -34 -33 -9 -6 -8 -10 -11 -11 -12 -13 -13 -12 -11 -11 -7 -5 -4 -4 -7 -8 -10 -10 -9 -13 -7 -6 -10 -11 -10 -12 -9
-8 -13 -21 -26 -30 -31 -32 -33 -33 -33 -33 -33 -33 -33 -33 -32 -9 -9 -9 -8 -9 -9 -8 -9 -8 -9 -12 -14 -9 -9 -11 -11 -11 -11 -12 -13 -14 -11 -14 -14 -15 -12 -13 -11 -7
-3 -11 -18 -24 -29 -31 -32 -32 -32 -32 -33 -33 -33 -32 -31 -15 -12 -12 -11 -11 -15 -12 -8 -9 -10 -11 -8 -7 -8 -11 -11 -11 -11 -11 -14 -15 -14 -14 -15 -19 -16 -16 -14 -12 -11
-1 -8 -15 -22 -28 -31 -31 -32 -32 -32 -33 -33 -32 -30 -28 -14 -14 -12 -12 -13 -16 -17 -17 -14 -13 -12 -13 -8 -9 -9 -9 -8 -11 -14 -14 -13 -13 -14 -15 -14 -15 -14 -14 -15 -16
4 -4 -11 -20 -27 -30 -31 -31 -31 -32 -32 -30 -26 -24 -24 -25 -13 -11 -11 -15 -16 -16 -17 -13 -12 -12 -12 -13 -10 -8 -8 -12 -13 -13 -14 -12 -15 -14 -13 -13 -12 -13 -13 -13 -14
6 1 -10 -19 -27 -30 -31 -31 -31 -32 -27 -21 -17 -14 -18 -9 -10 -13 -15 -16 -16 -15 -14 -14 -13 -12 -12 -10 -11 -10 -11 -8 -11 -12 -12 -13 -11 -13 -14 -14 -14 -12 -13 -14 -15
6 5 -5 -17 -28 -30 -30 -30 -31 -30 -29 -20 -15 -11 -10 -9 -13 -17 -16 -16 -16 -14 -14 -13 -12 -10 -11 -10 -9 -9 -8 -8 -9 -12 -13 -13 -13 -16 -14 -12 -12 -11 -12 -12 -16
6 6 -1 -20 -27 -29 -30 -30 -31 -31 -22 -15 -10 -9 -9 -9 -10 -15 -15 -15 -17 -14 -14 -12 -11 -10 -10 -9 -8 -7 -8 -8 -8 -11 -12 -11 -11 -12 -11 -10 -10 -10 -11 -12 -12
7 6 0 -21 -26 -29 -22 -18 -22 -17 -12 -15 -9 -10 -10 -10 -14 -15 -15 -14 -16 -15 -13 -11 -8 -8 -9 -10 -10 -9 -8 -8 -10 -12 -10 -9 -8 -9 -11 -11 -10 -10 -10 -10 -11
8 7 0 -10 -25 -19 -9 -17 -19 -13 -12 -12 -9 -10 -10 -13 -15 -15 -15 -15 -14 -13 -13 -9 -7 -9 -11 -10 -10 -10 -8 -8 -10 -10 -9 -9 -9 -11 -11 -10 -10 -10 -10 -11 -11
9 7 2 -11 -11 -8 -3 -20 -21 -17 -16 -16 -12 -11 -13 -13 -16 -15 -14 -15 -14 -13 -13 -10 -8 -9 -10 -10 -8 -9 -8 -8 -7 -8 -9 -9 -8 -11 -10 -9 -9 -9 -9 -10 -10
9 7 0 -13 -2 -7 -16 -20 -20 -26 -11 -12 -8 -10 -14 -15 -16 -16 -15 -16 -14 -13 -9 -7 -8 -9 -9 -9 -8 -7 -9 -8 -7 -6 -5 -7 -2 -6 -8 -8 -8 -6 -4 -9 -10
8 7 -2 -5 -8 -12 -12 -13 -25 -11 -12 -10 -9 -12 -16 -16 -15 -14 -14 -15 -12 -11 -12 -8 -8 -8 -8 -8 -9 -8 -8 -6 -7 -5 -3 -4 -2 -4 -7 -6 -7 0 2 1 -9
7 5 -1 1 -12 -12 -15 -11 -16 -10 -9 -7 -13 -13 -14 -16 -15 -13 -12 -11 -8 -7 -9 -9 -9 -9 -8 -9 -9 -9 -6 -6 -3 -2 -0 -3 -2 -4 -4 -6 -3 2 4 4 5
5 2 4 -5 -6 -9 -8 -14 -9 -8 -11 -11 -12 -12 -13 -13 -12 -12 -8 -8 -10 -9 -7 -6 -7 -8 -9 -8 -9 -7 -2 -1 -1 -3 -3 -7 -2 -2 -3 -6 2 2 3 3 6
4 2 2 -10 -8 -5 -13 -1 -4 -7 -7 -13 -12 -13 -12 -12 -10 -10 -9 -6 -8 -7 -5 -5 -5 -8 -9 -9 -7 -2 -1 -1 -0 -0 -3 -3 1 -1 -7 -3 0 3 2 5 5
1 -2 -13 -5 -3 -5 -3 -2 -10 -6 -10 -11 -13 -12 -10 -8 -8 -8 -8 -5 -8 -6 -4 -3 -4 -8 -9 -9 -8 -5 -3 -3 -2 -0 2 -1 -4 -7 -0 2 3 4 3 4 7
1 -4 -6 -7 -3 -4 0 -8 -6 -9 -11 -10 -9 -9 -7 -7 -7 -7 -6 -7 -7 -7 -7 -5 -4 -8 -8 -8 -8 -5 -6 -2 1 2 1 -2 -3 -0 3 3 3 3 5 5 5
-1 -2 -1 -0 -1 -0 -1 -2 -6 -10 -11 -9 -7 -7 -7 -7 -7 -7 -5 -7 -8 -6 -8 -6 -5 -6 -8 -6 -7 -5 -3 -2 -0 1 2 3 -1 -1 1 1 3 4 4 4 3
-2 0 0 -0 -1 -0 -1 -3 -9 -8 -9 -8 -8 -7 -6 -6 -6 -6 -4 -7 -9 -8 -8 -6 -3 -3 -7 -8 -7 -6 -6 -2 1 0 2 3 1 -3 -3 0 1 4 3 2 1
-1 -0 0 -1 0 -0 -2 -4 -7 -8 -7 -7 -6 -6 -7 -6 -5 -6 -6 -8 -10 -9 -7 -6 -5 -4 -9 -10 -11 -7 -7 -6 -4 1 2 3 -0 -4 -2 1 2 4 3 1 -0
-1 -0 -0 0 -1 -2 -2 -7 -6 -8 -8 -8 -7 -8 -7 -7 -6 -4 -4 -7 -9 -6 -6 -6 -4 -8 -9 -11 -6 -4 -5 -6 1 2 3 1 1 -1 0 1 3 3 2 0 -1
-2 -2 -3 -2 -3 -1 -4 -5 -5 -6 -8 -10 -9 -7 -6 -6 -6 -6 -7 -8 -9 -5 -7 -8 -7 -3 -4 -5 -5 -5 -5 -0 -1 0 2 1 1 1 1 0 1 1 -1 -1 -2
-2 -3 -4 -6 -2 -2 -2 -4 -5 -5 -6 -7 -7 -6 -7 -7 -7 -6 -7 -8 -9 -8 -8 -8 -9 -6 -4 -6 -6 -4 1 -0 -1 1 -1 -1 -2 -1 -0 -1 -1 -1 -2 -2 -2
-3 -6 -10 -3 -3 -2 -3 -4 -5 -6 -6 -8 -7 -6 -6 -7 -10 -10 -10 -10 -9 -7 -8 -7 -5 -3 -2 -4 -3 1 -0 -1 -3 -1 0 0 0 1 1 -1 -2 -2 -2 -2 -3

GFSSW_850_dewp_135.txt.gz
Dewpoint
-7 -10 -15 -20 -25 -29 -32 -32 -33 -33 -33 -33 -34 -34 -34 -34 -27 -9 -19 -15 -16 -28 -18 -17 -12 -8 -8 -3 -2 -1 1 2 1 1 -0 -3 -6 -5 -8 -5 -8 -8 -6 -9 -10
-5 -8 -12 -17 -23 -29 -31 -32 -33 -33 -33 -33 -34 -34 -34 -33 -15 -9 -11 -12 -12 -13 -20 -22 -15 -11 -8 -6 -5 -3 1 0 -1 -2 -4 -7 -10 -11 -11 -11 -11 -10 -12 -12 -15
-0 -4 -9 -14 -20 -27 -31 -32 -33 -33 -33 -33 -33 -34 -33 -33 -12 -7 -8 -9 -10 -12 -16 -17 -14 -13 -10 -13 -7 -5 -4 -4 -7 -7 -10 -13 -15 -15 -16 -18 -17 -13 -11 -12 -12
5 2 -3 -10 -15 -23 -30 -32 -32 -32 -32 -33 -33 -34 -33 -32 -18 -10 -10 -10 -10 -13 -13 -12 -10 -11 -10 -12 -8 -10 -10 -11 -11 -11 -11 -13 -14 -14 -14 -16 -14 -14 -15 -14 -15
6 5 1 -6 -12 -20 -28 -31 -32 -32 -32 -33 -33 -32 -32 -26 -18 -15 -12 -13 -16 -16 -12 -10 -10 -10 -9 -8 -9 -9 -11 -10 -10 -13 -13 -13 -13 -13 -15 -14 -15 -16 -18 -20 -21
7 6 4 -3 -10 -17 -27 -31 -32 -32 -32 -33 -31 -28 -28 -24 -19 -14 -13 -11 -16 -20 -19 -14 -12 -12 -11 -8 -11 -9 -9 -8 -12 -12 -13 -13 -13 -13 -14 -16 -19 -22 -24 -20 -17
7 7 6 1 -5 -14 -26 -30 -31 -31 -32 -31 -24 -16 -14 -25 -17 -13 -11 -14 -17 -17 -17 -13 -12 -13 -13 -12 -9 -7 -9 -12 -13 -11 -12 -14 -17 -14 -14 -17 -15 -14 -14 -13 -13
8 7 7 6 -0 -9 -24 -30 -30 -31 -31 -27 -20 -16 -15 -11 -11 -12 -16 -16 -17 -15 -14 -14 -13 -12 -10 -10 -11 -10 -11 -12 -12 -11 -12 -15 -20 -14 -18 -15 -14 -13 -12 -11 -12
8 7 6 6 4 -10 -23 -30 -30 -30 -30 -28 -22 -13 -15 -9 -11 -16 -16 -17 -16 -14 -13 -13 -12 -10 -11 -10 -11 -10 -10 -9 -10 -12 -12 -14 -14 -16 -16 -13 -12 -12 -11 -10 -10
9 8 7 6 5 -10 -24 -28 -29 -27 -23 -20 -14 -10 -10 -9 -11 -16 -16 -16 -17 -13 -12 -12 -11 -10 -10 -12 -15 -8 -8 -9 -9 -12 -12 -11 -11 -14 -14 -12 -11 -11 -10 -10 -9
9 9 8 6 4 -12 -21 -27 -18 -9 -11 -21 -13 -14 -8 -10 -14 -15 -15 -16 -16 -15 -12 -10 -10 -8 -9 -9 -10 -9 -9 -10 -12 -12 -11 -11 -12 -12 -12 -12 -12 -11 -10 -8 -5
9 9 8 7 -0 -7 -20 -20 -15 -10 -14 -15 -11 -8 -11 -13 -15 -15 -15 -15 -14 -12 -12 -9 -7 -9 -10 -10 -11 -11 -11 -10 -10 -11 -10 -11 -10 -10 -11 -11 -10 -9 -7 -1 -1
8 9 9 7 -10 -5 -16 -16 -9 -4 -18 -22 -18 -9 -11 -12 -16 -15 -14 -15 -13 -12 -12 -8 -8 -10 -10 -9 -10 -10 -9 -9 -9 -9 -9 -8 -11 -9 -12 -10 -10 -8 -2 -0 1
8 8 8 4 -11 -5 -14 -11 -4 -23 -18 -15 -8 -10 -12 -15 -15 -15 -15 -16 -13 -10 -8 -7 -9 -10 -9 -9 -9 -9 -10 -9 -8 -7 -7 -7 -6 -9 -9 -10 -8 -6 -1 1 2
7 7 8 6 -3 -9 -5 -4 -19 -18 -14 -10 -9 -11 -12 -17 -16 -13 -15 -14 -12 -11 -11 -8 -8 -8 -9 -9 -9 -10 -9 -8 -7 -6 -5 -4 -3 -7 -12 -8 -5 -2 0 2 2
7 5 7 2 1 -2 -5 -17 -19 -11 -15 -7 -12 -14 -14 -16 -14 -12 -11 -10 -9 -9 -9 -8 -9 -9 -10 -9 -9 -9 -7 -6 -4 -3 -2 -5 -4 -8 -8 -3 1 1 2 3 4
6 6 6 5 3 -3 -8 -13 -8 -10 -10 -10 -10 -13 -13 -12 -11 -10 -9 -9 -10 -8 -9 -8 -7 -8 -9 -9 -9 -7 -4 -7 -8 -6 -10 -7 -6 -6 -4 -1 -0 1 2 3 4
5 6 6 4 2 0 -5 -1 -4 -9 -8 -13 -11 -12 -12 -11 -9 -9 -8 -7 -8 -7 -6 -9 -8 -8 -9 -9 -9 -4 -2 -4 -4 -4 -6 -5 -2 -6 -3 -4 -2 -0 3 3 3
4 0 3 2 0 -2 -3 -2 -4 -7 -9 -11 -13 -12 -9 -9 -9 -8 -8 -5 -6 -6 -3 -5 -7 -8 -9 -9 -8 -6 -4 -4 -1 -2 0 -3 -6 -7 -4 -3 -2 1 3 2 1
1 -0 0 1 -0 -1 -0 -5 -9 -8 -11 -13 -10 -10 -8 -8 -7 -6 -6 -7 -7 -6 -6 -6 -6 -8 -8 -8 -8 -6 -7 -3 -2 1 0 -4 -4 -0 -1 -1 -1 2 3 0 -1
1 -1 -1 -0 -0 0 0 -5 -3 -10 -12 -9 -8 -7 -7 -7 -7 -6 -4 -7 -7 -6 -7 -5 -6 -6 -8 -6 -8 -4 -4 -4 -2 -1 1 -0 -4 -3 -1 -1 1 2 1 -0 -1
-0 0 -1 -0 -1 -0 0 -4 -6 -7 -9 -7 -6 -6 -6 -6 -6 -5 -3 -6 -8 -7 -7 -5 -3 -6 -9 -9 -9 -7 -6 -3 -0 0 0 -0 -1 -4 -2 -2 0 1 0 -1 -2
0 -2 -1 -1 0 -0 -2 -4 -6 -6 -7 -7 -6 -6 -6 -5 -5 -5 -6 -8 -9 -8 -4 -4 -4 -8 -9 -9 -9 -5 -8 -7 -4 -2 0 2 -3 -5 -3 -1 -1 -0 -1 -1 -2
-1 -0 -1 -1 -0 -1 -2 -3 -4 -7 -6 -7 -6 -7 -6 -6 -5 -5 -6 -7 -9 -6 -6 -7 -4 -5 -8 -11 -8 -5 -7 -7 -0 1 0 -1 0 -3 -2 0 -1 -1 -1 -2 -2
-0 -0 -1 0 -0 -2 -3 -4 -5 -5 -8 -9 -8 -7 -5 -5 -5 -5 -6 -7 -7 -5 -7 -7 -4 -4 -7 -9 -9 -8 -6 -5 1 -1 1 -0 -1 -1 -0 1 -1 -1 -2 -3 -3
-1 -1 -2 -2 -1 -3 -1 -2 -6 -5 -6 -6 -5 -6 -7 -6 -6 -5 -7 -7 -6 -8 -8 -8 -12 -7 -6 -8 -8 -6 -4 -1 -1 -1 -0 -2 -2 -2 -1 -0 -1 -2 -2 -3 -4
-2 -3 -3 -1 0 -0 -1 -4 -5 -5 -6 -7 -6 -5 -5 -7 -8 -8 -10 -10 -8 -8 -8 -8 -8 -4 -5 -4 -3 0 -1 -2 -2 -2 -1 0 -1 -2 -1 -1 -2 -2 -3 -3 -4

GFSSW_850_dewp_138.txt.gz
Dewpoint
0 -3 -5 -9 -15 -23 -28 -31 -32 -33 -33 -33 -33 -34 -34 -34 -27 -12 -12 -13 -12 -21 -23 -17 -8 -7 -6 -5 -2 -2 -4 -5 -3 -3 -4 -4 -8 -9 -10 -9 -11 -10 -8 -12 -11
3 -0 -3 -5 -11 -18 -25 -30 -32 -33 -33 -33 -34 -34 -34 -33 -20 -9 -12 -12 -12 -12 -12 -14 -14 -10 -9 -7 -5 -6 -6 -7 -3 -3 -5 -9 -11 -14 -16 -17 -18 -17 -14 -13 -13
5 2 1 -1 -7 -15 -21 -27 -31 -33 -33 -33 -33 -34 -34 -33 -7 -8 -9 -9 -9 -11 -13 -17 -15 -16 -13 -11 -7 -7 -10 -6 -8 -10 -11 -13 -17 -19 -20 -22 -19 -15 -14 -14 -14
7 6 5 3 -2 -10 -17 -26 -30 -32 -32 -33 -33 -34 -33 -33 -19 -9 -11 -13 -14 -17 -13 -11 -11 -15 -17 -14 -10 -10 -9 -9 -12 -13 -14 -17 -16 -17 -19 -20 -16 -14 -14 -16 -18
8 7 6 5 1 -6 -14 -24 -29 -32 -32 -32 -33 -33 -31 -13 -19 -21 -14 -13 -17 -20 -13 -12 -12 -11 -15 -13 -11 -12 -12 -13 -13 -14 -14 -13 -15 -15 -17 -19 -14 -15 -18 -19 -17
8 8 7 6 4 -3 -11 -22 -29 -31 -32 -32 -32 -30 -24 -18 -22 -17 -14 -13 -13 -16 -17 -14 -13 -13 -14 -14 -16 -13 -14 -14 -13 -14 -15 -14 -16 -18 -17 -14 -16 -19 -19 -18 -16
8 8 7 7 6 3 -8 -18 -28 -31 -31 -32 -30 -22 -14 -11 -17 -15 -13 -12 -15 -15 -16 -14 -13 -15 -14 -14 -10 -10 -12 -15 -14 -14 -15 -15 -21 -16 -17 -17 -20 -18 -16 -14 -13
10 9 8 7 7 4 -2 -17 -27 -30 -30 -31 -28 -22 -11 -12 -16 -12 -14 -14 -16 -17 -14 -13 -11 -11 -10 -9 -11 -13 -12 -17 -13 -14 -16 -16 -20 -18 -18 -19 -17 -14 -13 -12 -11
10 10 9 8 7 5 -3 -13 -26 -29 -29 -27 -20 -11 -16 -11 -10 -14 -15 -15 -13 -15 -14 -14 -10 -10 -10 -13 -14 -14 -18 -14 -15 -17 -17 -17 -16 -19 -19 -18 -15 -13 -12 -11 -10
9 9 9 9 7 6 -2 -18 -24 -27 -25 -21 -14 -7 -11 -10 -11 -15 -16 -15 -13 -11 -11 -11 -10 -12 -13 -16 -19 -14 -14 -14 -15 -19 -15 -15 -16 -19 -18 -16 -13 -12 -11 -10 -9
8 9 9 9 9 7 -7 -22 -11 -6 -6 -6 -10 -14 -9 -10 -12 -13 -14 -14 -14 -13 -13 -11 -13 -15 -12 -11 -11 -12 -14 -17 -19 -16 -13 -16 -16 -17 -16 -14 -13 -10 -9 -8 -5
8 6 8 8 8 6 -16 -11 -8 -7 -6 -10 -11 -6 -10 -12 -13 -13 -14 -15 -15 -16 -12 -12 -15 -10 -11 -12 -12 -15 -16 -17 -16 -16 -13 -13 -12 -14 -14 -13 -11 -10 -7 -4 -3
6 6 7 7 7 7 -10 -11 -8 -14 -4 -4 -7 -8 -10 -12 -14 -15 -14 -15 -16 -14 -14 -14 -10 -10 -10 -11 -13 -16 -14 -14 -14 -14 -13 -10 -16 -14 -14 -13 -10 -5 -3 -3 -1
7 5 7 7 6 6 4 -8 -14 -8 -0 -4 -13 -12 -10 -12 -14 -15 -15 -16 -14 -13 -13 -10 -10 -10 -10 -13 -13 -14 -13 -13 -11 -10 -12 -10 -14 -14 -14 -9 -5 -4 -4 -1 2
5 6 6 7 6 5 3 2 -9 -18 6 -9 -10 -11 -13 -17 -15 -13 -14 -15 -14 -10 -10 -8 -9 -9 -12 -12 -12 -13 -12 -9 -8 -8 -7 -8 -8 -15 -12 -4 -4 -5 -4 0 1
2 5 6 6 6 2 2 -2 -3 -1 7 -8 -13 -11 -13 -16 -15 -12 -13 -11 -11 -11 -11 -10 -10 -12 -12 -12 -11 -12 -8 -8 -6 -6 -6 -10 -9 -14 -6 -3 -4 -3 0 2 1
1 3 5 5 5 3 0 0 0 2 -6 -8 -12 -12 -14 -14 -12 -12 -11 -11 -12 -9 -9 -9 -10 -10 -11 -13 -12 -10 -8 -12 -11 -9 -12 -10 -8 -10 -5 -5 -4 0 2 1 0
1 2 4 5 4 3 0 0 2 2 -6 -11 -12 -13 -13 -13 -12 -12 -12 -9 -11 -12 -11 -11 -8 -9 -11 -12 -12 -7 -6 -6 -4 -11 -10 -10 -6 -9 -6 -5 -1 2 1 0 0
1 3 3 3 3 2 -1 2 3 -1 -8 -11 -12 -11 -12 -12 -11 -10 -10 -9 -10 -9 -10 -10 -9 -10 -11 -11 -10 -6 -5 -6 1 -4 -2 -8 -9 -12 -5 -4 -2 0 1 0 -1
1 2 1 2 2 0 1 4 2 -4 -8 -11 -8 -11 -9 -10 -9 -10 -8 -9 -7 -8 -7 -7 -5 -10 -10 -9 -9 -6 -7 -1 -2 -0 -4 -10 -9 -5 -2 -2 -2 -0 -1 -1 -0
2 0 0 1 0 -0 2 3 1 -6 -10 -7 -8 -10 -10 -10 -11 -9 -8 -8 -9 -7 -9 -9 -8 -7 -9 -8 -7 -5 -4 -5 -3 -2 -2 -4 -7 -4 -2 -2 -1 -1 -1 -1 -1
1 1 -0 0 -0 -0 2 2 -3 -6 -10 -8 -8 -8 -10 -10 -9 -7 -5 -7 -9 -9 -8 -5 -8 -8 -10 -10 -10 -8 -6 -5 -1 -1 -3 -2 -3 -5 -4 -2 -1 -2 -2 -2 -2
1 -1 -0 -0 2 1 0 -0 -3 -4 -8 -9 -7 -9 -9 -9 -7 -7 -7 -8 -9 -9 -6 -7 -7 -11 -10 -8 -6 -7 -8 -8 -5 -3 -1 -0 -6 -8 -5 -3 -1 -1 -2 -2 -3
0 -1 -1 -0 1 -1 2 1 -2 -4 -5 -5 -5 -7 -7 -8 -7 -6 -6 -7 -8 -9 -6 -7 -6 -3 -8 -7 -8 -6 -9 -10 -3 1 -3 -4 -4 -5 -3 -1 -1 -2 -2 -3 -3
-0 -1 -2 0 1 1 -0 -1 -1 -2 -4 -4 -5 -7 -7 -5 -6 -6 -7 -6 -6 -4 -7 -7 -5 -6 -12 -16 -14 -13 -10 -8 -0 0 1 -4 -3 -3 -1 -1 -1 -2 -3 -4 -4
0 -1 -2 -2 -1 0 1 1 -0 -2 -3 -3 -5 -7 -7 -6 -7 -6 -7 -8 -6 -7 -8 -9 -12 -11 -15 -16 -15 -14 -9 -5 -3 -1 -3 -4 -4 -2 -3 -2 -2 -2 -3 -3 -4
-0 -2 -3 -2 0 1 0 -1 -2 -2 -4 -6 -6 -5 -5 -6 -9 -9 -9 -9 -7 -8 -8 -10 -12 -11 -11 -8 -7 -2 -3 -2 3 -3 -2 0 1 -2 -2 -2 -1 -2 -4 -4 -5

GFSSW_850_dewp_141.txt.gz
Dewpoint
4 1 -3 -5 -8 -13 -20 -25 -30 -32 -33 -33 -33 -34 -34 -34 -31 -17 -11 -12 -14 -22 -25 -12 -10 -9 -9 -7 -6 -5 -5 -6 -7 -6 -5 -4 -8 -11 -13 -14 -12 -14 -9 -13 -14
6 4 1 -0 -5 -8 -15 -23 -28 -32 -33 -33 -33 -34 -34 -34 -25 -13 -11 -15 -15 -14 -8 -14 -17 -14 -12 -11 -9 -8 -8 -8 -5 -6 -6 -10 -14 -17 -19 -20 -20 -18 -16 -15 -15
7 6 4 3 2 -4 -11 -19 -27 -31 -32 -33 -33 -34 -34 -34 -3 -12 -13 -11 -10 -11 -9 -11 -13 -18 -17 -13 -11 -12 -10 -9 -10 -11 -13 -16 -20 -21 -22 -21 -21 -16 -15 -15 -16
8 7 7 6 4 0 -6 -13 -21 -29 -32 -32 -33 -33 -33 -31 -11 -9 -15 -21 -21 -19 -13 -13 -13 -14 -17 -15 -14 -13 -13 -11 -15 -14 -18 -21 -19 -20 -21 -21 -20 -16 -15 -16 -18
8 8 7 7 6 3 -1 -9 -15 -24 -30 -32 -32 -32 -32 -6 -16 -14 -24 -19 -16 -15 -15 -15 -15 -15 -15 -17 -15 -15 -17 -14 -17 -17 -18 -17 -19 -18 -19 -20 -18 -16 -17 -20 -19
10 9 8 8 7 6 2 -5 -11 -20 -28 -31 -32 -30 -7 -12 -14 -14 -14 -14 -15 -17 -18 -18 -16 -16 -17 -17 -17 -15 -17 -19 -18 -17 -17 -15 -17 -20 -20 -16 -18 -19 -20 -17 -16
10 10 9 8 8 7 5 -3 -11 -18 -23 -30 -31 -26 -4 -13 -15 -13 -14 -14 -14 -16 -16 -17 -16 -18 -16 -17 -15 -16 -15 -19 -17 -18 -17 -16 -19 -20 -19 -17 -19 -19 -17 -15 -14
10 9 10 10 9 8 6 2 -7 -17 -23 -28 -29 -23 -5 -9 -12 -12 -13 -13 -14 -15 -15 -14 -13 -13 -13 -11 -14 -16 -16 -18 -17 -16 -17 -17 -18 -19 -19 -19 -20 -18 -15 -13 -13
9 9 9 9 10 9 7 4 -4 -16 -24 -28 -20 -4 -5 -8 -12 -13 -14 -15 -14 -13 -13 -14 -12 -12 -11 -13 -14 -15 -17 -16 -16 -17 -18 -18 -17 -20 -20 -20 -19 -16 -14 -12 -11
8 8 9 9 9 9 8 5 -2 -13 -14 -20 -7 -5 -4 -9 -12 -15 -14 -14 -14 -12 -12 -13 -12 -13 -14 -16 -16 -13 -14 -16 -16 -18 -19 -18 -18 -20 -20 -19 -16 -13 -11 -9 -8
7 7 8 8 8 8 8 4 -3 -0 -4 -2 -2 -4 -12 -12 -12 -14 -14 -15 -14 -13 -12 -12 -12 -13 -17 -13 -13 -15 -18 -19 -20 -19 -16 -17 -17 -18 -17 -16 -13 -11 -7 -4 -4
7 6 6 8 7 7 8 2 -5 -5 -6 -2 -3 -5 -8 -11 -13 -14 -14 -14 -14 -12 -15 -12 -14 -15 -13 -14 -15 -16 -16 -17 -18 -19 -18 -17 -15 -16 -15 -14 -11 -6 -5 -5 -4
1 2 6 7 7 7 7 6 -1 -6 -5 -2 -1 -4 -5 -9 -10 -13 -13 -15 -15 -14 -13 -14 -11 -12 -13 -12 -14 -16 -15 -15 -16 -17 -17 -14 -15 -14 -14 -13 -8 -7 -6 -3 1
1 1 6 7 7 6 6 6 2 -0 3 4 1 -3 -4 -8 -9 -10 -13 -14 -15 -15 -17 -17 -11 -11 -12 -13 -14 -16 -14 -16 -16 -14 -15 -15 -14 -18 -15 -11 -8 -6 -3 1 0
3 2 3 4 6 6 5 6 3 1 7 1 -4 -8 -3 -8 -10 -13 -14 -15 -13 -15 -14 -12 -10 -11 -11 -14 -13 -15 -13 -14 -12 -10 -10 -12 -10 -15 -15 -7 -6 -3 -1 0 -0
2 2 2 5 6 5 5 5 2 4 6 0 -9 -9 -7 -9 -13 -14 -14 -15 -16 -14 -12 -14 -12 -13 -13 -13 -14 -15 -13 -11 -10 -8 -6 -10 -9 -16 -8 -5 -4 -1 -1 -1 -1
-1 1 2 4 5 4 4 3 3 5 3 1 -8 -10 -9 -9 -13 -12 -13 -11 -10 -8 -10 -10 -10 -13 -12 -13 -13 -13 -10 -9 -5 -4 -8 -11 -11 -13 -7 -6 -4 -2 -2 -1 -1
-1 2 2 3 4 4 2 2 4 4 3 -6 -6 -10 -8 -12 -13 -11 -11 -9 -11 -11 -10 -8 -8 -10 -12 -14 -13 -11 -9 -7 -4 -10 -11 -14 -11 -8 -7 -6 -5 -4 -2 -1 -1
0 1 3 3 3 2 2 4 6 5 1 -4 -9 -9 -9 -11 -11 -10 -9 -8 -10 -11 -7 -8 -9 -12 -12 -13 -14 -7 -6 -7 -2 -8 -4 -10 -10 -13 -7 -5 -5 -3 -3 -2 -2
2 2 2 2 3 2 3 4 3 2 -1 -5 -2 -7 -7 -10 -9 -9 -8 -10 -10 -11 -11 -10 -5 -10 -12 -13 -11 -8 -7 -2 -2 -1 -6 -14 -12 -8 -3 -3 -3 -2 -2 -2 -2
-0 1 1 2 2 1 3 4 3 2 -3 -4 -3 -3 -6 -8 -9 -7 -7 -8 -11 -10 -9 -8 -6 -8 -10 -9 -8 -6 -6 -7 -5 -6 -3 -6 -8 -5 -4 -3 -2 -2 -2 -2 -2
1 1 0 1 0 0 3 3 1 1 -1 -4 -5 -4 -5 -7 -7 -7 -5 -6 -10 -10 -9 -9 -6 -5 -7 -11 -12 -9 -5 -6 -1 -2 -4 -3 -5 -6 -5 -3 -3 -2 -2 -2 -3
1 0 0 1 2 1 0 1 1 0 -2 -2 -2 -2 -4 -4 -4 -4 -7 -9 -11 -9 -8 -7 -7 -6 -8 -9 -9 -8 -9 -8 -6 -4 -4 -2 -6 -8 -6 -3 -3 -2 -2 -3 -3
1 -0 -0 0 -1 0 0 3 2 -2 -1 -5 -5 -5 -4 -4 -3 -2 -5 -7 -10 -10 -9 -9 -7 -3 -5 -7 -7 -5 -9 -9 -5 -0 -4 -5 -6 -9 -3 -2 -2 -2 -2 -3 -3
1 1 -1 1 1 1 -1 -1 1 0 -3 -5 -5 -6 -5 -2 -2 -5 -6 -6 -9 -5 -9 -9 -5 -6 -12 -15 -11 -8 -8 -9 -1 -4 -2 -4 -5 -7 -1 -1 -2 -2 -3 -4 -4
0 1 -2 -3 -2 2 1 1 1 -0 -2 -3 -4 -7 -6 -4 -5 -5 -6 -5 -6 -6 -7 -7 -8 -9 -10 -15 -17 -17 -13 -10 -9 -8 -8 -7 -6 -2 -2 -2 -3 -2 -3 -4 -4
0 -0 -3 -2 -0 2 2 1 1 -2 -3 -4 -6 -5 -5 -7 -8 -8 -7 -6 -6 -6 -5 -6 -10 -11 -11 -17 -18 -8 -11 -9 3 -5 -2 1 -0 -2 -2 -2 -2 -2 -3 -4 -5

GFSSW_850_dewp_144.txt.gz
Dewpoint
7 6 3 -0 -2 -5 -10 -18 -24 -29 -31 -32 -33 -33 -34 -34 -34 -17 -7 -10 -14 -23 -20 -12 -14 -10 -10 -9 -7 -7 -4 -4 -6 -4 -4 -6 -8 -14 -14 -16 -15 -13 -10 -14 -15
7 7 5 3 2 0 -5 -11 -17 -25 -30 -32 -33 -33 -34 -34 -34 -6 -9 -12 -20 -17 -11 -11 -15 -15 -14 -10 -9 -8 -6 -8 -8 -8 -9 -14 -16 -18 -20 -21 -21 -18 -14 -15 -15
7 7 7 6 5 4 -1 -7 -11 -18 -26 -31 -32 -33 -34 -34 -13 -5 -11 -14 -15 -13 -12 -10 -13 -14 -17 -17 -13 -11 -9 -11 -11 -12 -15 -19 -21 -20 -21 -21 -20 -18 -14 -15 -17
9 8 8 7 7 6 2 -4 -9 -12 -20 -28 -32 -32 -33 -33 -5 -9 -15 -26 -27 -24 -13 -14 -13 -13 -14 -15 -15 -13 -13 -14 -12 -15 -19 -21 -20 -20 -20 -21 -20 -16 -16 -18 -19
10 9 8 8 7 7 6 3 -6 -9 -15 -24 -30 -32 -32 -3 -7 -11 -15 -27 -24 -14 -16 -15 -15 -15 -13 -15 -16 -15 -14 -16 -15 -17 -19 -18 -19 -20 -20 -18 -18 -17 -19 -19 -16
10 10 10 9 8 8 7 7 2 -7 -12 -18 -28 -31 -10 -4 -12 -13 -16 -18 -15 -16 -17 -18 -17 -16 -16 -16 -15 -16 -16 -17 -19 -19 -18 -17 -17 -19 -20 -18 -18 -19 -19 -16 -15
10 10 10 10 10 9 8 7 5 0 -9 -15 -24 -30 -5 -6 -13 -14 -14 -15 -15 -15 -16 -17 -17 -17 -18 -16 -18 -18 -17 -18 -19 -19 -18 -17 -18 -19 -18 -17 -19 -19 -18 -15 -13
9 8 9 9 9 10 10 8 7 5 -2 -16 -20 -27 -5 -4 -8 -12 -13 -13 -13 -15 -16 -15 -14 -14 -14 -14 -13 -15 -17 -15 -18 -17 -17 -18 -17 -18 -19 -19 -20 -19 -16 -13 -11
7 8 9 9 9 9 9 9 8 5 -1 -16 -15 -5 -1 -4 -7 -9 -12 -14 -13 -14 -14 -14 -14 -14 -13 -12 -15 -16 -13 -16 -14 -16 -17 -18 -17 -19 -20 -20 -20 -16 -13 -10 -7
6 6 8 9 9 8 9 9 9 7 -1 -7 -7 -5 -2 -3 -7 -11 -13 -14 -14 -13 -13 -14 -14 -12 -13 -14 -11 -12 -13 -14 -14 -16 -18 -18 -17 -19 -20 -19 -17 -13 -8 -5 -4
6 6 7 8 8 8 8 8 7 0 -1 1 -0 -2 -7 -3 -10 -13 -14 -14 -14 -13 -10 -12 -11 -10 -11 -12 -14 -13 -15 -15 -18 -19 -17 -17 -17 -19 -19 -17 -14 -8 -6 -6 0
1 4 5 6 8 7 7 7 2 1 -0 -2 -1 -0 -1 -6 -9 -12 -13 -14 -14 -12 -12 -11 -8 -11 -14 -13 -14 -16 -18 -17 -18 -19 -18 -18 -18 -18 -17 -15 -10 -6 -5 -0 1
-1 1 1 4 7 7 7 7 6 -3 -2 -0 -1 -1 -1 -2 -7 -8 -12 -13 -12 -10 -10 -9 -10 -13 -13 -13 -13 -17 -15 -15 -15 -17 -18 -17 -15 -15 -15 -14 -8 -5 -1 -1 -1
2 3 2 1 6 6 6 7 6 5 6 4 3 3 1 -2 -4 -5 -11 -12 -12 -10 -11 -11 -12 -11 -12 -14 -15 -13 -16 -15 -16 -16 -14 -15 -12 -14 -13 -12 -6 -2 -1 -2 -1
-0 3 3 2 6 5 5 5 6 4 8 2 2 1 2 -2 -5 -5 -6 -11 -9 -10 -12 -11 -13 -10 -11 -13 -16 -14 -13 -13 -16 -14 -12 -12 -11 -13 -14 -10 -4 -2 -2 -2 -1
-1 2 2 3 4 5 5 6 3 5 7 4 -5 -3 -4 -2 -4 -9 -6 -11 -11 -11 -12 -12 -12 -11 -11 -15 -14 -15 -14 -15 -14 -10 -5 -7 -9 -11 -11 -4 -4 -3 -3 -2 -2
-3 -1 -1 2 4 4 4 4 5 7 4 4 -2 -7 -5 -1 -3 -10 -10 -10 -10 -8 -8 -11 -11 -12 -13 -12 -13 -14 -12 -8 -5 -2 -3 -10 -9 -10 -5 -5 -4 -4 -3 -2 -2
-2 -2 -1 0 3 4 3 3 6 3 4 0 -1 -6 -5 -3 -5 -9 -10 -9 -11 -11 -8 -6 -7 -10 -12 -12 -12 -11 -12 -3 -2 -3 -5 -13 -11 -7 -6 -6 -4 -4 -3 -2 -2
-1 -1 1 1 2 3 3 4 5 1 -1 2 -1 -2 -5 -7 -7 -8 -8 -6 -10 -9 -4 -5 -7 -12 -12 -13 -14 -10 -7 -9 -2 -6 -8 -12 -13 -8 -6 -4 -3 -3 -3 -2 -2
-1 0 2 2 2 2 3 4 5 -0 -3 1 4 -3 -2 -5 -6 -7 -8 -9 -9 -9 -8 -6 -2 -11 -12 -13 -14 -11 -8 -4 -7 -5 -6 -10 -11 -4 -3 -3 -3 -3 -3 -2 -2
0 1 1 0 2 1 3 2 2 0 -2 1 2 -0 -4 -4 -6 -7 -7 -9 -9 -8 -8 -7 -2 -7 -10 -9 -10 -9 -4 -6 -5 -2 -3 -5 -8 -5 -3 -2 -2 -3 -3 -2 -3
1 1 1 2 1 0 2 1 -1 -1 -1 1 0 0 1 -2 -4 -6 -4 -7 -9 -9 -8 -5 -2 -2 -7 -10 -13 -11 -7 -7 0 -6 -6 -4 -4 -4 -2 -3 -3 -2 -3 -3 -3
1 1 1 1 1 2 -1 -1 -1 -2 -0 1 1 -1 -1 -1 -0 -0 -5 -8 -9 -9 -5 -5 -2 -3 -5 -8 -9 -8 -8 -7 -6 -4 0 2 -4 -4 -3 -2 -2 -2 -2 -3 -3
0 1 1 1 -2 -2 -2 -1 -0 -2 -1 -1 1 -2 -1 -0 -2 -0 -2 -5 -7 -8 -8 -6 -3 -0 -1 -5 -6 -5 -8 -9 -4 1 -3 -6 -8 -7 -1 -1 -2 -2 -3 -4 -4
0 0 1 0 1 -2 -2 -5 -1 -0 -2 -1 2 -0 -0 2 -0 1 -3 -3 -5 -4 -4 -3 -1 -1 -7 -10 -8 -7 -9 -10 -1 -2 -1 -6 -6 -4 -1 -1 -3 -3 -3 -4 -4
-0 0 -1 -3 -2 0 -1 -1 -4 -4 -2 -0 2 0 -1 1 -0 -0 -2 -1 -2 -4 -4 -6 -3 -6 -5 -11 -17 -16 -9 -8 -7 -7 -7 -8 -9 -2 -3 -3 -3 -2 -3 -4 -4
-1 -1 -1 -3 -1 1 0 -2 -3 -5 -4 -3 -1 -0 -1 -2 -4 -4 -3 -4 -5 -3 -1 -1 -3 -6 -7 -11 -13 -7 -8 -8 2 -8 -8 -3 -2 -1 -2 -3 -2 -2 -3 -4 -5

GFSSW_850_dewp_147.txt.gz
Dewpoint
7 7 6 4 2 2 0 -4 -10 -15 -20 -25 -29 -32 -33 -33 -33 -33 -17 -7 -11 -21 -19 -10 -12 -11 -9 -10 -8 -7 -5 -3 -4 -4 -8 -15 -15 -19 -19 -18 -18 -14 -15 -15 -17
7 7 7 6 5 5 5 1 -4 -10 -15 -21 -26 -30 -32 -33 -32 -32 -16 -6 -11 -19 -19 -10 -11 -13 -13 -15 -11 -7 -5 -5 -9 -11 -13 -17 -20 -20 -21 -22 -16 -15 -15 -16 -18
9 8 7 7 7 7 5 4 1 -3 -10 -17 -24 -28 -31 -33 -24 -5 -7 -9 -16 -25 -20 -12 -11 -12 -13 -14 -17 -10 -7 -9 -12 -15 -20 -21 -19 -20 -21 -20 -16 -14 -16 -18 -18
10 9 9 8 8 7 7 6 5 2 -5 -11 -20 -24 -30 -32 -5 -9 -11 -20 -28 -27 -23 -14 -14 -13 -12 -12 -14 -12 -14 -13 -14 -17 -18 -19 -18 -19 -20 -17 -16 -17 -19 -19 -16
9 9 10 10 9 8 8 7 7 6 1 -7 -15 -23 -18 -6 -6 -7 -11 -17 -23 -18 -17 -17 -17 -16 -13 -14 -15 -14 -14 -14 -15 -17 -18 -18 -17 -17 -19 -18 -19 -20 -19 -16 -15
10 10 9 9 10 9 9 8 7 7 5 -1 -11 -17 -23 -3 -9 -14 -14 -16 -22 -15 -16 -17 -18 -17 -17 -17 -16 -16 -17 -16 -16 -19 -18 -17 -16 -17 -18 -18 -19 -19 -17 -15 -12
9 9 10 9 9 10 9 10 9 8 6 3 -6 -16 -19 -3 -4 -9 -14 -14 -16 -15 -16 -16 -17 -16 -16 -14 -13 -16 -15 -15 -17 -18 -18 -17 -18 -17 -17 -17 -19 -18 -17 -13 -4
8 9 9 9 9 9 9 9 9 9 8 5 -3 -18 -14 2 -2 -9 -8 -13 -13 -14 -15 -16 -15 -14 -14 -14 -12 -12 -14 -14 -16 -17 -16 -18 -16 -16 -18 -19 -19 -18 -12 -6 -0
6 7 8 8 8 9 9 9 9 9 9 6 1 -8 -2 -1 -2 -5 -10 -11 -13 -13 -14 -14 -15 -13 -13 -11 -10 -12 -13 -13 -15 -16 -16 -17 -16 -18 -20 -20 -17 -12 -4 -1 -1
5 5 7 6 8 8 8 8 8 8 8 4 1 -4 -2 -0 -3 -7 -8 -11 -14 -13 -13 -13 -15 -11 -11 -9 -10 -12 -12 -13 -12 -15 -16 -15 -16 -18 -19 -19 -13 -5 0 -0 -0
-0 2 3 5 6 8 8 7 7 5 4 5 1 0 1 -5 -5 -10 -12 -13 -14 -14 -10 -12 -11 -9 -10 -11 -12 -13 -13 -14 -17 -17 -17 -16 -16 -17 -19 -16 -6 -0 0 -0 -1
-7 -1 1 4 6 7 7 7 5 4 4 3 5 1 0 1 -2 -11 -14 -14 -13 -10 -11 -9 -8 -9 -10 -11 -13 -13 -14 -15 -16 -17 -18 -17 -17 -18 -18 -11 -2 -1 -1 -2 -2
-15 -6 0 1 2 6 7 7 7 5 0 1 5 3 2 0 -0 -6 -11 -13 -11 -10 -10 -8 -8 -10 -10 -11 -12 -12 -13 -14 -13 -17 -18 -18 -15 -17 -14 -2 -1 -2 -2 -1 -1
-7 -2 0 1 2 5 6 5 6 6 6 4 3 3 2 -0 -0 0 -7 -12 -11 -10 -9 -9 -10 -10 -12 -11 -12 -11 -13 -13 -15 -15 -13 -14 -10 -14 -11 -0 -1 -2 -2 -2 -2
-4 -1 1 1 4 4 5 4 5 4 7 2 2 2 2 -1 -2 -1 -3 -11 -10 -10 -9 -7 -11 -9 -9 -10 -13 -12 -11 -11 -12 -13 -13 -12 -10 -12 -12 0 -1 -2 -2 -2 -2
-4 -1 1 1 3 4 4 4 4 5 6 3 -0 -0 1 1 -1 -4 -3 -6 -11 -9 -8 -8 -12 -11 -10 -12 -13 -12 -14 -13 -12 -12 -5 -9 -8 -9 -8 -1 -2 -2 -2 -2 -2
-3 -3 2 1 1 3 4 2 5 5 1 -3 2 -3 -1 3 2 -1 -4 -3 -7 -6 -5 -8 -9 -12 -12 -11 -13 -13 -11 -7 -4 -5 -3 -7 -6 -5 -2 -3 -3 -2 -2 -2 -2
-4 -2 -2 -1 -1 2 2 3 5 2 0 0 1 -0 -2 -2 -1 -0 -3 -3 -8 -9 -6 -5 -5 -9 -12 -11 -9 -10 -10 -2 1 1 -1 -7 -10 -1 -3 -3 -3 -3 -2 -2 -2
-3 -3 -1 -1 2 2 3 3 2 2 -1 -1 -2 2 2 -4 -2 -1 -2 -6 -7 -8 -4 -4 -6 -10 -11 -12 -11 -8 -8 -10 -2 -4 -2 -8 -3 -3 -3 -2 -3 -2 -2 -2 -2
-2 -1 -1 -1 1 2 2 1 2 1 0 -2 2 2 2 -1 -3 -1 -2 -6 -8 -8 -9 -4 -2 -9 -11 -11 -12 -12 -8 -3 -3 -2 -4 -6 -5 -2 -0 -1 -2 -2 -2 -2 -2
-0 0 -2 -1 1 1 2 1 -1 -2 -1 1 1 3 1 -1 -4 -3 -2 -6 -8 -8 -8 -7 0 -5 -8 -8 -9 -9 -3 -4 -3 -0 1 -0 -0 -1 -0 -1 -1 -2 -2 -3 -3
-0 0 -1 1 1 1 1 -1 -2 -4 -3 -1 1 3 3 1 -0 -2 -2 -4 -9 -8 -6 -3 1 0 -6 -9 -11 -10 -6 -3 0 -2 -1 -1 0 -2 -2 -2 -2 -2 -2 -3 -3
-2 0 0 1 1 1 0 -1 -2 -2 -3 -1 0 3 2 2 3 0 -1 -6 -10 -6 -4 -5 0 -0 -3 -6 -9 -8 -9 -8 -3 -1 -0 2 2 -2 -2 -2 -2 -2 -3 -3 -4
-3 -0 1 1 1 -1 -1 -1 -0 -2 -2 -3 -1 1 3 3 2 1 1 -2 -6 -5 -8 -4 -2 -1 -0 -2 -4 -5 -7 -8 -4 1 -1 -1 2 0 -0 -1 -2 -2 -3 -3 -4
-2 -1 0 0 0 0 -1 -2 -1 -1 -2 -3 -1 1 3 5 2 1 -0 -0 -4 -3 -3 -1 -0 -2 -3 -2 -3 -6 -6 -7 -1 -2 -0 -3 -3 0 0 -1 -2 -3 -3 -3 -4
-2 -3 -1 -0 -2 -0 -1 -1 -3 -2 -2 -1 -0 -1 1 3 2 1 0 -0 -0 -2 -1 -1 1 -2 -2 -3 -3 -9 -5 -5 -6 -4 -5 -5 -5 -2 -3 -3 -1 -3 -3 -3 -4
-2 -4 -3 -3 1 -0 -1 -3 -3 -4 -4 -4 -2 -1 -0 1 -0 -1 -1 -2 -2 -2 -1 -1 -1 -1 1 -1 -2 -4 -7 -6 -2 -2 -3 -2 -0 -1 -2 -1 -1 -3 -4 -4 -5

GFSSW_850_dewp_150.txt.gz
Dewpoint
7 7 7 7 5 5 5 4 1 -2 -7 -11 -16 -20 -23 -23 -26 -30 -31 -14 -9 -11 -22 -13 -12 -13 -12 -10 -10 -9 -5 -3 -4 -5 -12 -19 -19 -19 -18 -14 -15 -15 -16 -17 -17
8 7 7 7 7 6 6 5 4 1 -3 -6 -10 -12 -16 -17 -18 -13 -22 -14 -10 -14 -19 -16 -12 -13 -14 -15 -16 -8 -5 -5 -8 -11 -17 -20 -20 -20 -21 -16 -14 -16 -18 -18 -18
9 9 8 7 7 7 7 7 6 5 3 -1 -6 -7 -10 -9 -13 -8 -7 -10 -14 -28 -26 -21 -13 -13 -12 -13 -14 -11 -6 -8 -12 -19 -21 -21 -19 -20 -20 -15 -14 -17 -18 -17 -13
9 9 9 9 8 8 7 7 7 6 6 4 -1 -4 -4 -5 -10 -10 -9 -17 -26 -24 -24 -15 -17 -15 -12 -12 -13 -13 -14 -12 -14 -17 -20 -19 -19 -19 -19 -16 -17 -19 -17 -15 -8
9 9 9 9 9 9 8 8 8 7 6 6 4 -1 -2 -10 -2 -9 -11 -12 -17 -20 -17 -17 -17 -17 -14 -14 -16 -14 -16 -15 -16 -18 -19 -18 -18 -17 -18 -17 -19 -19 -15 -8 -3
9 9 9 9 9 9 9 9 9 8 8 7 5 3 -4 -7 -6 -12 -14 -14 -14 -16 -15 -16 -16 -16 -17 -17 -17 -15 -17 -17 -17 -18 -18 -17 -17 -17 -18 -19 -19 -16 -6 -2 -2
9 9 9 9 9 9 9 9 9 9 9 8 6 4 -3 3 1 -3 -12 -14 -13 -15 -15 -15 -16 -15 -15 -14 -13 -13 -15 -16 -17 -18 -19 -17 -18 -18 -18 -18 -18 -3 -1 -1 -2
8 9 9 9 9 9 9 8 8 8 9 9 7 3 -2 4 2 -0 -6 -11 -13 -14 -14 -15 -15 -15 -14 -15 -13 -12 -12 -12 -16 -17 -17 -18 -16 -17 -17 -18 -17 -0 -0 -1 -1
3 3 3 6 8 8 8 8 8 8 8 9 8 -2 1 2 0 -1 -2 -7 -9 -13 -13 -14 -14 -15 -14 -11 -9 -12 -10 -13 -14 -16 -16 -17 -16 -18 -17 -19 -8 0 -0 -1 -1
-2 -0 1 1 2 7 8 8 8 8 8 8 6 1 3 2 -0 -3 -5 -10 -11 -13 -13 -13 -14 -12 -11 -9 -6 -10 -12 -13 -13 -15 -16 -16 -17 -19 -18 -17 -0 1 -0 -1 -2
-7 -2 -1 1 1 4 7 7 7 5 7 7 4 4 3 -0 -2 -6 -8 -8 -10 -13 -11 -12 -12 -11 -12 -11 -10 -11 -11 -12 -17 -16 -16 -14 -16 -17 -17 -1 1 -0 -1 -1 -3
-19 -11 -3 -1 1 5 7 7 6 4 6 5 5 2 5 4 0 -5 -11 -12 -13 -11 -11 -9 -8 -11 -12 -11 -10 -10 -9 -13 -16 -18 -17 -17 -17 -18 -18 -2 -0 -1 -1 -2 -4
-14 -15 -14 -3 1 3 6 6 7 7 5 4 4 5 4 5 3 3 -1 -14 -12 -11 -10 -9 -9 -10 -9 -8 -8 -12 -13 -14 -15 -17 -18 -18 -15 -17 -1 -1 -1 -1 -1 -3 -5
-6 -8 -9 -3 1 2 5 5 5 4 6 3 3 2 2 3 2 3 3 -13 -12 -10 -11 -10 -11 -10 -8 -8 -11 -10 -13 -14 -15 -15 -13 -16 -13 -14 0 -0 -2 -1 -2 -3 -4
-6 -5 0 -1 3 4 3 4 4 2 4 -2 1 1 2 2 -0 0 2 -9 -10 -10 -10 -8 -9 -8 -8 -10 -12 -11 -11 -11 -12 -13 -13 -14 -13 -12 0 1 -1 -2 -2 -2 -3
-4 -4 -0 1 2 2 4 4 5 3 4 0 2 2 2 1 0 -4 0 -7 -11 -10 -10 -9 -11 -11 -10 -11 -12 -12 -13 -12 -12 -12 -10 -12 -13 -10 -8 0 -1 -2 -2 -3 -3
-3 -3 -2 1 -1 2 4 5 5 4 -2 -4 3 -3 2 4 2 -0 -1 -4 -5 -6 -5 -8 -9 -10 -12 -12 -13 -13 -11 -8 -7 -8 -9 -9 -11 -14 -1 -2 -1 -1 -2 -3 -2
-2 -3 -3 2 1 -1 2 3 4 -0 -0 -3 -1 -3 -0 -0 3 2 1 -1 -3 -7 -5 -4 -3 -8 -11 -10 -10 -12 -10 -3 -4 -2 -2 -6 -5 -1 -2 -2 -2 -2 -2 -2 -2
-2 -2 -2 -2 -1 1 2 2 0 1 -0 -1 -3 -2 2 -1 -1 3 3 3 -2 -6 -4 -3 -5 -10 -11 -11 -11 -9 -9 -8 -3 -3 -1 -4 0 -1 -2 -2 -2 -2 -2 -2 -2
-2 -2 -3 -4 -1 1 1 1 1 -2 -2 0 2 -1 -0 2 0 -2 2 1 -3 -4 -6 -5 -3 -8 -11 -12 -12 -8 -7 -3 -2 -2 -2 -6 -0 0 0 -1 -2 -2 -2 -2 -3
-1 0 -2 -3 -1 1 1 0 -1 -4 -3 1 2 2 3 2 1 -1 2 -1 -4 -5 -7 -6 -2 -5 -10 -8 -8 -8 -4 -4 -2 -2 -0 -0 -2 -1 -1 -1 -1 -2 -3 -3 -4
-2 -0 -1 -2 1 1 1 -1 -3 -3 -4 -2 0 2 2 1 2 -0 -1 -2 -7 -7 -6 -4 -0 -3 -7 -8 -11 -11 -7 -3 1 -2 0 0 -0 -1 -1 -1 -2 -2 -3 -3 -4
-2 -2 -1 -0 -0 1 -0 -0 -3 -4 -3 -3 -2 -0 2 3 4 4 2 -2 -7 -6 -4 -2 1 -1 -3 -6 -7 -8 -9 -8 -2 0 0 2 0 -2 -2 -1 -2 -3 -3 -3 -4
-2 -2 -3 1 -1 -2 -0 0 -0 -3 -3 -4 -2 -3 1 3 3 3 2 0 -4 -2 -2 -4 -0 -1 -1 -1 -3 -6 -7 -8 -3 1 -3 -3 2 0 -1 -0 -2 -3 -3 -3 -4
-2 -2 -4 -1 0 -0 -1 -2 -1 -1 -3 -4 -1 -1 -0 3 3 4 1 1 -1 -4 -3 -3 -1 -2 -2 -2 -1 -1 -1 -5 -2 -3 -1 -4 1 1 -0 -1 -2 -3 -3 -4 -4
-3 -2 -4 -4 -0 0 -1 -1 -1 -2 -2 -1 -2 -3 -1 2 2 1 1 2 -1 -1 -1 -0 0 0 0 -1 -1 -0 0 -1 -3 -5 -4 -3 0 -1 -1 -2 -2 -3 -3 -4 -5
-2 -5 -2 -5 -4 -0 -0 -2 -2 -4 -4 -4 -3 -2 -1 -1 -1 1 2 1 1 0 -0 -0 2 2 3 1 1 4 2 1 -1 -2 -2 -1 -0 -1 -1 -1 -2 -3 -4 -5 -6